<?xml version="1.0" encoding="UTF-8" standalone="no" ?>
<gpx xmlns="http://www.topografix.com/GPX/1/1" xmlns:xsi="http://www.w3.org/2001/XMLSchema-instance" xsi:schemaLocation="http://www.topografix.com/GPX/1/1 http://www.topografix.com/GPX/1/1/gpx.xsd" version="1.1" creator="VisuGPX - https://www.visugpx.com">
  <metadata>
    <name>Mayet Croix Faraude Fradin Mayet</name>
  </metadata>
  <trk>
    <name><![CDATA[2025-09-29 10:25:06]]></name>
    <extensions>
      <line xmlns="http://www.topografix.com/GPX/gpx_style/0/2">
        <color>ff4000</color>
        <opacity>1</opacity>
        <width>7</width>
          <extensions>
            <sens>1</sens>
          </extensions>
      </line>
    </extensions>
    <trkseg>
      <trkpt lat="46.14267" lon="3.42259">
        <ele>333.06</ele>
        <time>2025-09-27T08:57:47Z</time>
        <extensions>
          <visugpx:TrkExtension xmlns:visugpx="https://www.visugpx.com/editgpx/">
            <visugpx:node>1</visugpx:node>
            </visugpx:TrkExtension>
        </extensions>
      </trkpt>
      <trkpt lat="46.14289" lon="3.42247">
        <ele>289.25</ele>
        <time>2025-09-27T09:00:02Z</time>
      </trkpt>
      <trkpt lat="46.1429" lon="3.42237">
        <ele>277.36</ele>
        <time>2025-09-27T10:14:04Z</time>
      </trkpt>
      <trkpt lat="46.14283" lon="3.42244">
        <ele>295.26</ele>
        <time>2025-09-27T10:14:34Z</time>
      </trkpt>
      <trkpt lat="46.06973" lon="3.66546">
        <ele>552.24</ele>
        <time>2025-09-27T11:32:38Z</time>
      </trkpt>
      <trkpt lat="46.06976" lon="3.66566">
        <ele>537.9</ele>
      </trkpt>
      <trkpt lat="46.06979" lon="3.6659">
        <ele>540.93</ele>
        <time>2025-09-27T11:36:28Z</time>
      </trkpt>
      <trkpt lat="46.07012" lon="3.66646">
        <ele>540.27</ele>
        <time>2025-09-27T11:36:37Z</time>
      </trkpt>
      <trkpt lat="46.07016" lon="3.667">
        <ele>541.6</ele>
        <time>2025-09-27T11:36:48Z</time>
      </trkpt>
      <trkpt lat="46.06972" lon="3.66727">
        <ele>544.91</ele>
        <time>2025-09-27T11:37:01Z</time>
      </trkpt>
      <trkpt lat="46.0697" lon="3.66767">
        <ele>548.13</ele>
        <time>2025-09-27T11:37:15Z</time>
      </trkpt>
      <trkpt lat="46.07006" lon="3.66806">
        <ele>551.2</ele>
        <time>2025-09-27T11:37:29Z</time>
      </trkpt>
      <trkpt lat="46.07045" lon="3.66841">
        <ele>555.42</ele>
        <time>2025-09-27T11:37:43Z</time>
      </trkpt>
      <trkpt lat="46.07067" lon="3.66899">
        <ele>558.75</ele>
        <time>2025-09-27T11:37:57Z</time>
      </trkpt>
      <trkpt lat="46.07074" lon="3.66956">
        <ele>559.67</ele>
        <time>2025-09-27T11:38:12Z</time>
      </trkpt>
      <trkpt lat="46.0703" lon="3.66987">
        <ele>563.05</ele>
        <time>2025-09-27T11:38:30Z</time>
      </trkpt>
      <trkpt lat="46.06975" lon="3.67009">
        <ele>568.33</ele>
        <time>2025-09-27T11:38:56Z</time>
      </trkpt>
      <trkpt lat="46.06929" lon="3.67023">
        <ele>575.53</ele>
        <time>2025-09-27T11:39:19Z</time>
      </trkpt>
      <trkpt lat="46.0688" lon="3.6704">
        <ele>579.66</ele>
        <time>2025-09-27T11:39:44Z</time>
      </trkpt>
      <trkpt lat="46.06826" lon="3.67044">
        <ele>581.55</ele>
        <time>2025-09-27T11:40:06Z</time>
      </trkpt>
      <trkpt lat="46.06776" lon="3.67043">
        <ele>583.4</ele>
        <time>2025-09-27T11:40:22Z</time>
      </trkpt>
      <trkpt lat="46.06731" lon="3.67053">
        <ele>585.48</ele>
        <time>2025-09-27T11:40:37Z</time>
      </trkpt>
      <trkpt lat="46.06689" lon="3.67092">
        <ele>586.03</ele>
        <time>2025-09-27T11:40:53Z</time>
      </trkpt>
      <trkpt lat="46.06647" lon="3.67133">
        <ele>586.34</ele>
        <time>2025-09-27T11:41:07Z</time>
      </trkpt>
      <trkpt lat="46.06612" lon="3.67176">
        <ele>587.4</ele>
        <time>2025-09-27T11:41:20Z</time>
      </trkpt>
      <trkpt lat="46.06573" lon="3.67213">
        <ele>588.47</ele>
        <time>2025-09-27T11:41:33Z</time>
      </trkpt>
      <trkpt lat="46.0654" lon="3.67262">
        <ele>595.02</ele>
        <time>2025-09-27T11:41:49Z</time>
      </trkpt>
      <trkpt lat="46.06507" lon="3.67311">
        <ele>600.08</ele>
        <time>2025-09-27T11:42:06Z</time>
      </trkpt>
      <trkpt lat="46.0648" lon="3.67367">
        <ele>603.53</ele>
        <time>2025-09-27T11:42:23Z</time>
      </trkpt>
      <trkpt lat="46.06457" lon="3.67429">
        <ele>603.97</ele>
        <time>2025-09-27T11:42:38Z</time>
      </trkpt>
      <trkpt lat="46.06429" lon="3.67486">
        <ele>601.4</ele>
        <time>2025-09-27T11:42:50Z</time>
      </trkpt>
      <trkpt lat="46.06393" lon="3.67541">
        <ele>598.82</ele>
        <time>2025-09-27T11:43:01Z</time>
      </trkpt>
      <trkpt lat="46.06364" lon="3.67602">
        <ele>593.95</ele>
        <time>2025-09-27T11:43:09Z</time>
      </trkpt>
      <trkpt lat="46.06329" lon="3.67654">
        <ele>591.75</ele>
        <time>2025-09-27T11:43:17Z</time>
      </trkpt>
      <trkpt lat="46.06296" lon="3.67699">
        <ele>590.65</ele>
        <time>2025-09-27T11:43:25Z</time>
      </trkpt>
      <trkpt lat="46.06263" lon="3.67749">
        <ele>591.33</ele>
        <time>2025-09-27T11:43:37Z</time>
      </trkpt>
      <trkpt lat="46.06228" lon="3.67796">
        <ele>592.64</ele>
        <time>2025-09-27T11:43:49Z</time>
      </trkpt>
      <trkpt lat="46.06191" lon="3.67838">
        <ele>594.64</ele>
        <time>2025-09-27T11:44:01Z</time>
      </trkpt>
      <trkpt lat="46.06149" lon="3.67879">
        <ele>596.24</ele>
        <time>2025-09-27T11:44:14Z</time>
      </trkpt>
      <trkpt lat="46.06107" lon="3.67912">
        <ele>595.44</ele>
        <time>2025-09-27T11:44:25Z</time>
      </trkpt>
      <trkpt lat="46.06064" lon="3.67963">
        <ele>595.21</ele>
        <time>2025-09-27T11:44:37Z</time>
      </trkpt>
      <trkpt lat="46.06034" lon="3.68025">
        <ele>592.36</ele>
        <time>2025-09-27T11:44:46Z</time>
      </trkpt>
      <trkpt lat="46.05982" lon="3.6804">
        <ele>585.72</ele>
        <time>2025-09-27T11:44:53Z</time>
      </trkpt>
      <trkpt lat="46.05945" lon="3.68081">
        <ele>583.28</ele>
        <time>2025-09-27T11:45:00Z</time>
      </trkpt>
      <trkpt lat="46.05898" lon="3.68105">
        <ele>581.32</ele>
        <time>2025-09-27T11:45:09Z</time>
      </trkpt>
      <trkpt lat="46.05851" lon="3.68127">
        <ele>579.3</ele>
        <time>2025-09-27T11:45:17Z</time>
      </trkpt>
      <trkpt lat="46.05809" lon="3.68157">
        <ele>577.75</ele>
        <time>2025-09-27T11:45:25Z</time>
      </trkpt>
      <trkpt lat="46.05768" lon="3.68177">
        <ele>576.48</ele>
        <time>2025-09-27T11:45:38Z</time>
      </trkpt>
      <trkpt lat="46.05722" lon="3.68195">
        <ele>576.99</ele>
        <time>2025-09-27T11:45:50Z</time>
      </trkpt>
      <trkpt lat="46.05679" lon="3.6822">
        <ele>577.58</ele>
        <time>2025-09-27T11:46:00Z</time>
      </trkpt>
      <trkpt lat="46.05632" lon="3.68228">
        <ele>579.17</ele>
        <time>2025-09-27T11:46:10Z</time>
      </trkpt>
      <trkpt lat="46.05587" lon="3.68253">
        <ele>582.21</ele>
        <time>2025-09-27T11:46:21Z</time>
      </trkpt>
      <trkpt lat="46.05542" lon="3.68275">
        <ele>582.67</ele>
        <time>2025-09-27T11:46:31Z</time>
      </trkpt>
      <trkpt lat="46.05498" lon="3.68264">
        <ele>582.39</ele>
        <time>2025-09-27T11:46:39Z</time>
      </trkpt>
      <trkpt lat="46.05451" lon="3.68242">
        <ele>582.6</ele>
        <time>2025-09-27T11:46:48Z</time>
      </trkpt>
      <trkpt lat="46.05406" lon="3.68222">
        <ele>583.34</ele>
        <time>2025-09-27T11:46:57Z</time>
      </trkpt>
      <trkpt lat="46.05361" lon="3.68208">
        <ele>584.47</ele>
        <time>2025-09-27T11:47:06Z</time>
      </trkpt>
      <trkpt lat="46.05316" lon="3.68198">
        <ele>585.38</ele>
        <time>2025-09-27T11:47:15Z</time>
      </trkpt>
      <trkpt lat="46.05267" lon="3.68191">
        <ele>587.28</ele>
        <time>2025-09-27T11:47:25Z</time>
      </trkpt>
      <trkpt lat="46.05221" lon="3.68186">
        <ele>588.21</ele>
        <time>2025-09-27T11:47:34Z</time>
      </trkpt>
      <trkpt lat="46.05172" lon="3.68174">
        <ele>589.76</ele>
        <time>2025-09-27T11:47:44Z</time>
      </trkpt>
      <trkpt lat="46.05123" lon="3.68165">
        <ele>590.87</ele>
        <time>2025-09-27T11:47:54Z</time>
      </trkpt>
      <trkpt lat="46.05075" lon="3.68156">
        <ele>592.38</ele>
        <time>2025-09-27T11:48:04Z</time>
      </trkpt>
      <trkpt lat="46.05029" lon="3.68147">
        <ele>594.41</ele>
        <time>2025-09-27T11:48:14Z</time>
      </trkpt>
      <trkpt lat="46.04982" lon="3.6815">
        <ele>596.5</ele>
        <time>2025-09-27T11:48:24Z</time>
      </trkpt>
      <trkpt lat="46.04939" lon="3.68173">
        <ele>598.55</ele>
        <time>2025-09-27T11:48:34Z</time>
      </trkpt>
      <trkpt lat="46.04896" lon="3.68201">
        <ele>601.79</ele>
        <time>2025-09-27T11:48:45Z</time>
      </trkpt>
      <trkpt lat="46.0485" lon="3.68224">
        <ele>603.83</ele>
        <time>2025-09-27T11:48:57Z</time>
      </trkpt>
      <trkpt lat="46.04806" lon="3.68239">
        <ele>607.36</ele>
        <time>2025-09-27T11:49:12Z</time>
      </trkpt>
      <trkpt lat="46.0476" lon="3.68227">
        <ele>611.49</ele>
        <time>2025-09-27T11:49:29Z</time>
      </trkpt>
      <trkpt lat="46.04723" lon="3.68187">
        <ele>615.98</ele>
        <time>2025-09-27T11:49:44Z</time>
      </trkpt>
      <trkpt lat="46.04691" lon="3.68135">
        <ele>619.13</ele>
        <time>2025-09-27T11:49:58Z</time>
      </trkpt>
      <trkpt lat="46.04646" lon="3.68116">
        <ele>622.81</ele>
        <time>2025-09-27T11:50:13Z</time>
      </trkpt>
      <trkpt lat="46.04601" lon="3.68109">
        <ele>628.08</ele>
        <time>2025-09-27T11:50:29Z</time>
      </trkpt>
      <trkpt lat="46.04558" lon="3.6809">
        <ele>636.03</ele>
        <time>2025-09-27T11:50:46Z</time>
      </trkpt>
      <trkpt lat="46.04512" lon="3.68076">
        <ele>641.07</ele>
        <time>2025-09-27T11:51:04Z</time>
      </trkpt>
      <trkpt lat="46.04468" lon="3.68084">
        <ele>645.25</ele>
        <time>2025-09-27T11:51:21Z</time>
      </trkpt>
      <trkpt lat="46.04421" lon="3.68116">
        <ele>650.03</ele>
        <time>2025-09-27T11:51:41Z</time>
      </trkpt>
      <trkpt lat="46.0437" lon="3.68152">
        <ele>655.83</ele>
        <time>2025-09-27T11:52:04Z</time>
      </trkpt>
      <trkpt lat="46.04317" lon="3.6819">
        <ele>662.26</ele>
        <time>2025-09-27T11:52:26Z</time>
      </trkpt>
      <trkpt lat="46.04269" lon="3.68212">
        <ele>673.95</ele>
        <time>2025-09-27T11:52:48Z</time>
      </trkpt>
      <trkpt lat="46.04226" lon="3.68244">
        <ele>684.92</ele>
        <time>2025-09-27T11:53:13Z</time>
      </trkpt>
      <trkpt lat="46.04188" lon="3.6828">
        <ele>694.17</ele>
        <time>2025-09-27T11:53:36Z</time>
      </trkpt>
      <trkpt lat="46.04141" lon="3.68299">
        <ele>697.73</ele>
        <time>2025-09-27T11:53:59Z</time>
      </trkpt>
      <trkpt lat="46.04093" lon="3.68324">
        <ele>701.5</ele>
        <time>2025-09-27T11:54:21Z</time>
      </trkpt>
      <trkpt lat="46.04048" lon="3.68351">
        <ele>709.12</ele>
        <time>2025-09-27T11:54:44Z</time>
      </trkpt>
      <trkpt lat="46.04009" lon="3.68388">
        <ele>718.36</ele>
        <time>2025-09-27T11:55:08Z</time>
      </trkpt>
      <trkpt lat="46.03976" lon="3.68437">
        <ele>729.41</ele>
        <time>2025-09-27T11:55:34Z</time>
      </trkpt>
      <trkpt lat="46.03963" lon="3.68499">
        <ele>737.06</ele>
        <time>2025-09-27T11:55:57Z</time>
      </trkpt>
      <trkpt lat="46.03917" lon="3.6854">
        <ele>739.54</ele>
        <time>2025-09-27T11:56:21Z</time>
      </trkpt>
      <trkpt lat="46.03868" lon="3.68577">
        <ele>744.38</ele>
        <time>2025-09-27T11:56:41Z</time>
      </trkpt>
      <trkpt lat="46.03842" lon="3.68637">
        <ele>753.46</ele>
        <time>2025-09-27T11:56:59Z</time>
      </trkpt>
      <trkpt lat="46.03811" lon="3.68698">
        <ele>756.72</ele>
        <time>2025-09-27T11:57:16Z</time>
      </trkpt>
      <trkpt lat="46.03772" lon="3.68651">
        <ele>758.1</ele>
        <time>2025-09-27T11:57:32Z</time>
      </trkpt>
      <trkpt lat="46.03723" lon="3.68648">
        <ele>763.51</ele>
        <time>2025-09-27T11:57:48Z</time>
      </trkpt>
      <trkpt lat="46.03674" lon="3.68665">
        <ele>764.17</ele>
        <time>2025-09-27T11:58:02Z</time>
      </trkpt>
      <trkpt lat="46.03622" lon="3.68691">
        <ele>765.34</ele>
        <time>2025-09-27T11:58:16Z</time>
      </trkpt>
      <trkpt lat="46.03562" lon="3.68679">
        <ele>770.51</ele>
        <time>2025-09-27T11:58:34Z</time>
      </trkpt>
      <trkpt lat="46.03519" lon="3.68622">
        <ele>775.06</ele>
        <time>2025-09-27T11:59:00Z</time>
      </trkpt>
      <trkpt lat="46.03475" lon="3.68582">
        <ele>782.05</ele>
        <time>2025-09-27T11:59:26Z</time>
      </trkpt>
      <trkpt lat="46.03421" lon="3.68567">
        <ele>788.93</ele>
        <time>2025-09-27T11:59:50Z</time>
      </trkpt>
      <trkpt lat="46.03373" lon="3.68578">
        <ele>799.22</ele>
        <time>2025-09-27T12:00:15Z</time>
      </trkpt>
      <trkpt lat="46.03386" lon="3.68645">
        <ele>800.29</ele>
        <time>2025-09-27T12:00:31Z</time>
      </trkpt>
      <trkpt lat="46.03407" lon="3.68714">
        <ele>799.71</ele>
        <time>2025-09-27T12:00:40Z</time>
      </trkpt>
      <trkpt lat="46.03406" lon="3.68784">
        <ele>797.08</ele>
        <time>2025-09-27T12:00:49Z</time>
      </trkpt>
      <trkpt lat="46.03402" lon="3.68855">
        <ele>792.29</ele>
        <time>2025-09-27T12:00:58Z</time>
      </trkpt>
      <trkpt lat="46.03396" lon="3.68929">
        <ele>788.26</ele>
        <time>2025-09-27T12:01:08Z</time>
      </trkpt>
      <trkpt lat="46.03397" lon="3.68994">
        <ele>791.7</ele>
        <time>2025-09-27T12:01:21Z</time>
      </trkpt>
      <trkpt lat="46.03419" lon="3.69062">
        <ele>793.02</ele>
        <time>2025-09-27T12:01:37Z</time>
      </trkpt>
      <trkpt lat="46.03443" lon="3.69131">
        <ele>792.14</ele>
        <time>2025-09-27T12:01:57Z</time>
      </trkpt>
      <trkpt lat="46.03459" lon="3.692">
        <ele>790.18</ele>
        <time>2025-09-27T12:02:10Z</time>
      </trkpt>
      <trkpt lat="46.03469" lon="3.69264">
        <ele>786.77</ele>
        <time>2025-09-27T12:02:20Z</time>
      </trkpt>
      <trkpt lat="46.03492" lon="3.69328">
        <ele>785.95</ele>
        <time>2025-09-27T12:02:33Z</time>
      </trkpt>
      <trkpt lat="46.03523" lon="3.69385">
        <ele>781.77</ele>
        <time>2025-09-27T12:02:43Z</time>
      </trkpt>
      <trkpt lat="46.03533" lon="3.69445">
        <ele>775.54</ele>
        <time>2025-09-27T12:02:55Z</time>
      </trkpt>
      <trkpt lat="46.03556" lon="3.69462">
        <ele>771.62</ele>
        <time>2025-09-27T12:03:16Z</time>
      </trkpt>
      <trkpt lat="46.03576" lon="3.69525">
        <ele>764.84</ele>
        <time>2025-09-27T12:03:36Z</time>
      </trkpt>
      <trkpt lat="46.03579" lon="3.69596">
        <ele>758.58</ele>
        <time>2025-09-27T12:03:47Z</time>
      </trkpt>
      <trkpt lat="46.03586" lon="3.69664">
        <ele>757.08</ele>
        <time>2025-09-27T12:03:56Z</time>
      </trkpt>
      <trkpt lat="46.03576" lon="3.69727">
        <ele>754.28</ele>
        <time>2025-09-27T12:04:04Z</time>
      </trkpt>
      <trkpt lat="46.0356" lon="3.69798">
        <ele>751.7</ele>
        <time>2025-09-27T12:04:12Z</time>
      </trkpt>
      <trkpt lat="46.03571" lon="3.69865">
        <ele>745.49</ele>
        <time>2025-09-27T12:04:22Z</time>
      </trkpt>
      <trkpt lat="46.03577" lon="3.69931">
        <ele>739.26</ele>
        <time>2025-09-27T12:04:31Z</time>
      </trkpt>
      <trkpt lat="46.03569" lon="3.69993">
        <ele>735.26</ele>
        <time>2025-09-27T12:04:41Z</time>
      </trkpt>
      <trkpt lat="46.03554" lon="3.70062">
        <ele>728.05</ele>
        <time>2025-09-27T12:05:04Z</time>
      </trkpt>
      <trkpt lat="46.03526" lon="3.70113">
        <ele>720.73</ele>
        <time>2025-09-27T12:05:13Z</time>
      </trkpt>
      <trkpt lat="46.03485" lon="3.7014">
        <ele>712.71</ele>
        <time>2025-09-27T12:05:23Z</time>
      </trkpt>
      <trkpt lat="46.03492" lon="3.70202">
        <ele>704.74</ele>
        <time>2025-09-27T12:05:34Z</time>
      </trkpt>
      <trkpt lat="46.03499" lon="3.70273">
        <ele>696.61</ele>
        <time>2025-09-27T12:05:42Z</time>
      </trkpt>
      <trkpt lat="46.03496" lon="3.70343">
        <ele>693.03</ele>
        <time>2025-09-27T12:05:51Z</time>
      </trkpt>
      <trkpt lat="46.03489" lon="3.70413">
        <ele>689.47</ele>
        <time>2025-09-27T12:06:00Z</time>
      </trkpt>
      <trkpt lat="46.03481" lon="3.70482">
        <ele>684.06</ele>
        <time>2025-09-27T12:06:08Z</time>
      </trkpt>
      <trkpt lat="46.03477" lon="3.70547">
        <ele>678.7</ele>
        <time>2025-09-27T12:06:18Z</time>
      </trkpt>
      <trkpt lat="46.03448" lon="3.705">
        <ele>675.76</ele>
        <time>2025-09-27T12:06:38Z</time>
      </trkpt>
      <trkpt lat="46.0342" lon="3.7044">
        <ele>674.04</ele>
        <time>2025-09-27T12:06:50Z</time>
      </trkpt>
      <trkpt lat="46.03395" lon="3.70381">
        <ele>671.77</ele>
        <time>2025-09-27T12:06:58Z</time>
      </trkpt>
      <trkpt lat="46.03356" lon="3.70344">
        <ele>669.63</ele>
        <time>2025-09-27T12:07:06Z</time>
      </trkpt>
      <trkpt lat="46.03329" lon="3.70286">
        <ele>667.03</ele>
        <time>2025-09-27T12:07:14Z</time>
      </trkpt>
      <trkpt lat="46.03292" lon="3.70247">
        <ele>667.08</ele>
        <time>2025-09-27T12:07:23Z</time>
      </trkpt>
      <trkpt lat="46.03252" lon="3.70184">
        <ele>668.05</ele>
        <time>2025-09-27T12:07:37Z</time>
      </trkpt>
      <trkpt lat="46.03214" lon="3.70136">
        <ele>668.59</ele>
        <time>2025-09-27T12:07:48Z</time>
      </trkpt>
      <trkpt lat="46.03183" lon="3.70192">
        <ele>677.31</ele>
        <time>2025-09-27T12:08:05Z</time>
      </trkpt>
      <trkpt lat="46.03145" lon="3.70156">
        <ele>680.97</ele>
        <time>2025-09-27T12:08:24Z</time>
      </trkpt>
      <trkpt lat="46.03081" lon="3.70173">
        <ele>688.64</ele>
        <time>2025-09-27T12:08:53Z</time>
      </trkpt>
      <trkpt lat="46.03036" lon="3.70196">
        <ele>691.67</ele>
        <time>2025-09-27T12:09:11Z</time>
      </trkpt>
      <trkpt lat="46.02991" lon="3.70172">
        <ele>690.41</ele>
        <time>2025-09-27T12:09:26Z</time>
      </trkpt>
      <trkpt lat="46.02947" lon="3.70183">
        <ele>690.62</ele>
        <time>2025-09-27T12:09:41Z</time>
      </trkpt>
      <trkpt lat="46.02914" lon="3.70228">
        <ele>691.2</ele>
        <time>2025-09-27T12:09:56Z</time>
      </trkpt>
      <trkpt lat="46.02884" lon="3.70276">
        <ele>696.12</ele>
        <time>2025-09-27T12:10:12Z</time>
      </trkpt>
      <trkpt lat="46.02847" lon="3.70313">
        <ele>705.41</ele>
        <time>2025-09-27T12:10:31Z</time>
      </trkpt>
      <trkpt lat="46.028" lon="3.70321">
        <ele>714.97</ele>
        <time>2025-09-27T12:10:51Z</time>
      </trkpt>
      <trkpt lat="46.02755" lon="3.70301">
        <ele>720.67</ele>
        <time>2025-09-27T12:11:10Z</time>
      </trkpt>
      <trkpt lat="46.02713" lon="3.70274">
        <ele>730.97</ele>
        <time>2025-09-27T12:11:35Z</time>
      </trkpt>
      <trkpt lat="46.02669" lon="3.70262">
        <ele>742.44</ele>
        <time>2025-09-27T12:12:00Z</time>
      </trkpt>
      <trkpt lat="46.02615" lon="3.70297">
        <ele>750.08</ele>
        <time>2025-09-27T12:12:30Z</time>
      </trkpt>
      <trkpt lat="46.02566" lon="3.70292">
        <ele>756.57</ele>
        <time>2025-09-27T12:12:54Z</time>
      </trkpt>
      <trkpt lat="46.02521" lon="3.70285">
        <ele>762.8</ele>
        <time>2025-09-27T12:13:14Z</time>
      </trkpt>
      <trkpt lat="46.02471" lon="3.70287">
        <ele>771.19</ele>
        <time>2025-09-27T12:13:37Z</time>
      </trkpt>
      <trkpt lat="46.02411" lon="3.70275">
        <ele>774.95</ele>
        <time>2025-09-27T12:14:07Z</time>
      </trkpt>
      <trkpt lat="46.02348" lon="3.7029">
        <ele>779.81</ele>
        <time>2025-09-27T12:14:35Z</time>
      </trkpt>
      <trkpt lat="46.0228" lon="3.70286">
        <ele>788.75</ele>
        <time>2025-09-27T12:15:03Z</time>
      </trkpt>
      <trkpt lat="46.02248" lon="3.70234">
        <ele>803.67</ele>
        <time>2025-09-27T12:15:29Z</time>
      </trkpt>
      <trkpt lat="46.0222" lon="3.7016">
        <ele>808.83</ele>
        <time>2025-09-27T12:15:57Z</time>
      </trkpt>
      <trkpt lat="46.02176" lon="3.7009">
        <ele>818.56</ele>
        <time>2025-09-27T12:16:24Z</time>
      </trkpt>
      <trkpt lat="46.02155" lon="3.70028">
        <ele>825.07</ele>
        <time>2025-09-27T12:16:47Z</time>
      </trkpt>
      <trkpt lat="46.02123" lon="3.69972">
        <ele>829.45</ele>
        <time>2025-09-27T12:17:07Z</time>
      </trkpt>
      <trkpt lat="46.02099" lon="3.69914">
        <ele>833.8</ele>
        <time>2025-09-27T12:17:23Z</time>
      </trkpt>
      <trkpt lat="46.0209" lon="3.69898">
        <ele>835.09</ele>
        <time>2025-09-27T12:17:51Z</time>
      </trkpt>
      <trkpt lat="46.02052" lon="3.69942">
        <ele>838.78</ele>
        <time>2025-09-27T12:18:09Z</time>
      </trkpt>
      <trkpt lat="46.02023" lon="3.69992">
        <ele>845.28</ele>
        <time>2025-09-27T12:18:27Z</time>
      </trkpt>
      <trkpt lat="46.01977" lon="3.69991">
        <ele>850.39</ele>
        <time>2025-09-27T12:18:45Z</time>
      </trkpt>
      <trkpt lat="46.0193" lon="3.70007">
        <ele>853.58</ele>
        <time>2025-09-27T12:19:01Z</time>
      </trkpt>
      <trkpt lat="46.01886" lon="3.70026">
        <ele>854.55</ele>
        <time>2025-09-27T12:19:15Z</time>
      </trkpt>
      <trkpt lat="46.01841" lon="3.70059">
        <ele>857.21</ele>
        <time>2025-09-27T12:19:31Z</time>
      </trkpt>
      <trkpt lat="46.01795" lon="3.70081">
        <ele>857.66</ele>
        <time>2025-09-27T12:19:45Z</time>
      </trkpt>
      <trkpt lat="46.01759" lon="3.70132">
        <ele>857.75</ele>
        <time>2025-09-27T12:19:59Z</time>
      </trkpt>
      <trkpt lat="46.01726" lon="3.70189">
        <ele>853.51</ele>
        <time>2025-09-27T12:20:07Z</time>
      </trkpt>
      <trkpt lat="46.01697" lon="3.70243">
        <ele>851.15</ele>
        <time>2025-09-27T12:20:14Z</time>
      </trkpt>
      <trkpt lat="46.0166" lon="3.70288">
        <ele>850.38</ele>
        <time>2025-09-27T12:20:22Z</time>
      </trkpt>
      <trkpt lat="46.01653" lon="3.70339">
        <ele>850.66</ele>
        <time>2025-09-27T12:20:35Z</time>
      </trkpt>
      <trkpt lat="46.01673" lon="3.70419">
        <ele>853.24</ele>
        <time>2025-09-27T12:20:54Z</time>
      </trkpt>
      <trkpt lat="46.01669" lon="3.70521">
        <ele>855.6</ele>
        <time>2025-09-27T12:21:15Z</time>
      </trkpt>
      <trkpt lat="46.01648" lon="3.7062">
        <ele>854.92</ele>
        <time>2025-09-27T12:21:35Z</time>
      </trkpt>
      <trkpt lat="46.01593" lon="3.70704">
        <ele>856.2</ele>
        <time>2025-09-27T12:21:57Z</time>
      </trkpt>
      <trkpt lat="46.01529" lon="3.70757">
        <ele>858.8</ele>
        <time>2025-09-27T12:22:20Z</time>
      </trkpt>
      <trkpt lat="46.01465" lon="3.708">
        <ele>862.02</ele>
        <time>2025-09-27T12:22:42Z</time>
      </trkpt>
      <trkpt lat="46.01404" lon="3.70854">
        <ele>863.87</ele>
        <time>2025-09-27T12:23:04Z</time>
      </trkpt>
      <trkpt lat="46.01353" lon="3.70886">
        <ele>865.21</ele>
        <time>2025-09-27T12:23:18Z</time>
      </trkpt>
      <trkpt lat="46.01307" lon="3.70899">
        <ele>864.49</ele>
        <time>2025-09-27T12:23:32Z</time>
      </trkpt>
      <trkpt lat="46.01249" lon="3.70933">
        <ele>862.19</ele>
        <time>2025-09-27T12:23:49Z</time>
      </trkpt>
      <trkpt lat="46.01195" lon="3.70986">
        <ele>855.63</ele>
        <time>2025-09-27T12:24:10Z</time>
      </trkpt>
      <trkpt lat="46.01146" lon="3.7103">
        <ele>846.22</ele>
        <time>2025-09-27T12:24:29Z</time>
      </trkpt>
      <trkpt lat="46.01107" lon="3.71069">
        <ele>837.01</ele>
        <time>2025-09-27T12:24:42Z</time>
      </trkpt>
      <trkpt lat="46.01062" lon="3.71101">
        <ele>826.96</ele>
        <time>2025-09-27T12:24:50Z</time>
      </trkpt>
      <trkpt lat="46.01025" lon="3.71146">
        <ele>822.02</ele>
        <time>2025-09-27T12:24:57Z</time>
      </trkpt>
      <trkpt lat="46.00984" lon="3.71169">
        <ele>817.17</ele>
        <time>2025-09-27T12:25:05Z</time>
      </trkpt>
      <trkpt lat="46.00967" lon="3.7112">
        <ele>816.95</ele>
        <time>2025-09-27T12:25:23Z</time>
      </trkpt>
      <trkpt lat="46.0094" lon="3.7107">
        <ele>813.45</ele>
        <time>2025-09-27T12:25:40Z</time>
      </trkpt>
      <trkpt lat="46.00928" lon="3.71004">
        <ele>813.56</ele>
        <time>2025-09-27T12:25:55Z</time>
      </trkpt>
      <trkpt lat="46.00883" lon="3.71015">
        <ele>813.84</ele>
        <time>2025-09-27T12:26:07Z</time>
      </trkpt>
      <trkpt lat="46.00837" lon="3.71032">
        <ele>816.6</ele>
        <time>2025-09-27T12:26:22Z</time>
      </trkpt>
      <trkpt lat="46.00775" lon="3.71063">
        <ele>812.44</ele>
        <time>2025-09-27T12:26:36Z</time>
      </trkpt>
      <trkpt lat="46.00733" lon="3.7112">
        <ele>811.78</ele>
        <time>2025-09-27T12:26:45Z</time>
      </trkpt>
      <trkpt lat="46.00674" lon="3.71154">
        <ele>812.15</ele>
        <time>2025-09-27T12:26:54Z</time>
      </trkpt>
      <trkpt lat="46.00617" lon="3.7114">
        <ele>810.64</ele>
        <time>2025-09-27T12:27:04Z</time>
      </trkpt>
      <trkpt lat="46.00565" lon="3.71132">
        <ele>808.34</ele>
        <time>2025-09-27T12:27:14Z</time>
      </trkpt>
      <trkpt lat="46.0052" lon="3.71112">
        <ele>810.68</ele>
        <time>2025-09-27T12:27:24Z</time>
      </trkpt>
      <trkpt lat="46.00475" lon="3.71135">
        <ele>810.85</ele>
        <time>2025-09-27T12:27:35Z</time>
      </trkpt>
      <trkpt lat="46.00444" lon="3.71197">
        <ele>809.09</ele>
        <time>2025-09-27T12:27:44Z</time>
      </trkpt>
      <trkpt lat="46.00413" lon="3.71258">
        <ele>804.57</ele>
        <time>2025-09-27T12:27:54Z</time>
      </trkpt>
      <trkpt lat="46.00361" lon="3.71284">
        <ele>803.79</ele>
        <time>2025-09-27T12:28:04Z</time>
      </trkpt>
      <trkpt lat="46.0032" lon="3.71317">
        <ele>801.31</ele>
        <time>2025-09-27T12:28:13Z</time>
      </trkpt>
      <trkpt lat="46.00271" lon="3.71351">
        <ele>798.52</ele>
        <time>2025-09-27T12:28:24Z</time>
      </trkpt>
      <trkpt lat="46.00244" lon="3.71413">
        <ele>796.1</ele>
        <time>2025-09-27T12:28:33Z</time>
      </trkpt>
      <trkpt lat="46.0021" lon="3.71465">
        <ele>793.44</ele>
        <time>2025-09-27T12:28:43Z</time>
      </trkpt>
      <trkpt lat="46.00163" lon="3.71472">
        <ele>791.15</ele>
        <time>2025-09-27T12:28:53Z</time>
      </trkpt>
      <trkpt lat="46.00109" lon="3.71478">
        <ele>791.42</ele>
        <time>2025-09-27T12:29:03Z</time>
      </trkpt>
      <trkpt lat="46.00088" lon="3.71523">
        <ele>790.1</ele>
        <time>2025-09-27T12:29:13Z</time>
      </trkpt>
      <trkpt lat="46.00105" lon="3.71587">
        <ele>789.26</ele>
        <time>2025-09-27T12:29:26Z</time>
      </trkpt>
      <trkpt lat="46.00087" lon="3.71655">
        <ele>787.14</ele>
        <time>2025-09-27T12:29:39Z</time>
      </trkpt>
      <trkpt lat="46.00046" lon="3.71704">
        <ele>783.55</ele>
        <time>2025-09-27T12:29:48Z</time>
      </trkpt>
      <trkpt lat="46.00004" lon="3.71758">
        <ele>779.68</ele>
        <time>2025-09-27T12:30:00Z</time>
      </trkpt>
      <trkpt lat="45.99967" lon="3.71803">
        <ele>775.27</ele>
        <time>2025-09-27T12:30:09Z</time>
      </trkpt>
      <trkpt lat="45.99948" lon="3.71869">
        <ele>771.87</ele>
        <time>2025-09-27T12:30:16Z</time>
      </trkpt>
      <trkpt lat="45.99935" lon="3.71937">
        <ele>765.96</ele>
        <time>2025-09-27T12:30:23Z</time>
      </trkpt>
      <trkpt lat="45.99904" lon="3.71989">
        <ele>762.38</ele>
        <time>2025-09-27T12:30:30Z</time>
      </trkpt>
      <trkpt lat="45.99877" lon="3.72046">
        <ele>756.54</ele>
        <time>2025-09-27T12:30:37Z</time>
      </trkpt>
      <trkpt lat="45.99842" lon="3.72097">
        <ele>753.76</ele>
        <time>2025-09-27T12:30:43Z</time>
      </trkpt>
      <trkpt lat="45.99804" lon="3.72119">
        <ele>747.76</ele>
        <time>2025-09-27T12:30:54Z</time>
      </trkpt>
      <trkpt lat="45.9976" lon="3.7215">
        <ele>744.78</ele>
        <time>2025-09-27T12:31:10Z</time>
      </trkpt>
      <trkpt lat="45.99719" lon="3.72187">
        <ele>741.79</ele>
        <time>2025-09-27T12:31:24Z</time>
      </trkpt>
      <trkpt lat="45.99682" lon="3.7223">
        <ele>739.67</ele>
        <time>2025-09-27T12:31:33Z</time>
      </trkpt>
      <trkpt lat="45.99684" lon="3.72305">
        <ele>737.9</ele>
        <time>2025-09-27T12:31:41Z</time>
      </trkpt>
      <trkpt lat="45.99686" lon="3.72376">
        <ele>733.18</ele>
        <time>2025-09-27T12:31:48Z</time>
      </trkpt>
      <trkpt lat="45.99686" lon="3.72456">
        <ele>730.82</ele>
        <time>2025-09-27T12:31:56Z</time>
      </trkpt>
      <trkpt lat="45.99683" lon="3.72524">
        <ele>726.24</ele>
        <time>2025-09-27T12:32:08Z</time>
      </trkpt>
      <trkpt lat="45.99674" lon="3.72591">
        <ele>721.47</ele>
        <time>2025-09-27T12:32:19Z</time>
      </trkpt>
      <trkpt lat="45.99671" lon="3.72656">
        <ele>719.84</ele>
        <time>2025-09-27T12:32:28Z</time>
      </trkpt>
      <trkpt lat="45.99667" lon="3.72724">
        <ele>719.22</ele>
        <time>2025-09-27T12:32:40Z</time>
      </trkpt>
      <trkpt lat="45.99663" lon="3.72792">
        <ele>719.32</ele>
        <time>2025-09-27T12:32:54Z</time>
      </trkpt>
      <trkpt lat="45.99653" lon="3.72856">
        <ele>718.89</ele>
        <time>2025-09-27T12:33:08Z</time>
      </trkpt>
      <trkpt lat="45.99621" lon="3.72871">
        <ele>719.57</ele>
        <time>2025-09-27T12:33:28Z</time>
      </trkpt>
      <trkpt lat="45.99585" lon="3.7283">
        <ele>728.73</ele>
        <time>2025-09-27T12:33:51Z</time>
      </trkpt>
      <trkpt lat="45.9954" lon="3.72834">
        <ele>737.2</ele>
        <time>2025-09-27T12:34:15Z</time>
      </trkpt>
      <trkpt lat="45.99496" lon="3.72852">
        <ele>742.7</ele>
        <time>2025-09-27T12:34:42Z</time>
      </trkpt>
      <trkpt lat="45.99429" lon="3.72853">
        <ele>753.73</ele>
        <time>2025-09-27T12:35:20Z</time>
      </trkpt>
      <trkpt lat="45.99364" lon="3.72823">
        <ele>768.36</ele>
        <time>2025-09-27T12:35:58Z</time>
      </trkpt>
      <trkpt lat="45.99357" lon="3.72765">
        <ele>775.15</ele>
        <time>2025-09-27T12:41:19Z</time>
      </trkpt>
      <trkpt lat="45.99357" lon="3.72666">
        <ele>777.92</ele>
        <time>2025-09-27T12:41:55Z</time>
      </trkpt>
      <trkpt lat="45.99332" lon="3.72589">
        <ele>790.43</ele>
        <time>2025-09-27T12:49:19Z</time>
      </trkpt>
      <trkpt lat="45.99318" lon="3.72506">
        <ele>802.39</ele>
        <time>2025-09-27T12:50:28Z</time>
      </trkpt>
      <trkpt lat="45.99328" lon="3.72434">
        <ele>824.39</ele>
        <time>2025-09-27T12:52:48Z</time>
      </trkpt>
      <trkpt lat="45.99328" lon="3.72362">
        <ele>830.84</ele>
        <time>2025-09-27T12:53:17Z</time>
      </trkpt>
      <trkpt lat="45.99334" lon="3.72298">
        <ele>833.51</ele>
        <time>2025-09-27T12:54:08Z</time>
      </trkpt>
      <trkpt lat="45.99328" lon="3.72231">
        <ele>834.79</ele>
        <time>2025-09-27T12:54:33Z</time>
      </trkpt>
      <trkpt lat="45.99306" lon="3.72164">
        <ele>838.73</ele>
        <time>2025-09-27T12:55:01Z</time>
      </trkpt>
      <trkpt lat="45.99322" lon="3.7209">
        <ele>844.62</ele>
        <time>2025-09-27T12:55:32Z</time>
      </trkpt>
      <trkpt lat="45.99334" lon="3.72012">
        <ele>852.37</ele>
        <time>2025-09-27T12:56:03Z</time>
      </trkpt>
      <trkpt lat="45.99336" lon="3.71936">
        <ele>856.65</ele>
        <time>2025-09-27T12:56:30Z</time>
      </trkpt>
      <trkpt lat="45.99346" lon="3.71856">
        <ele>858.03</ele>
        <time>2025-09-27T12:56:52Z</time>
      </trkpt>
      <trkpt lat="45.99362" lon="3.71777">
        <ele>858.77</ele>
        <time>2025-09-27T12:57:10Z</time>
      </trkpt>
      <trkpt lat="45.99383" lon="3.71688">
        <ele>859.65</ele>
        <time>2025-09-27T12:57:36Z</time>
      </trkpt>
      <trkpt lat="45.99433" lon="3.71669">
        <ele>866.35</ele>
        <time>2025-09-27T12:58:05Z</time>
      </trkpt>
      <trkpt lat="45.99494" lon="3.71664">
        <ele>874.25</ele>
        <time>2025-09-27T12:58:32Z</time>
      </trkpt>
      <trkpt lat="45.99542" lon="3.71658">
        <ele>877.58</ele>
        <time>2025-09-27T12:58:52Z</time>
      </trkpt>
      <trkpt lat="45.99593" lon="3.71639">
        <ele>881.32</ele>
        <time>2025-09-27T12:59:12Z</time>
      </trkpt>
      <trkpt lat="45.99642" lon="3.71595">
        <ele>886.96</ele>
        <time>2025-09-27T12:59:32Z</time>
      </trkpt>
      <trkpt lat="45.99682" lon="3.71552">
        <ele>887.94</ele>
        <time>2025-09-27T12:59:50Z</time>
      </trkpt>
      <trkpt lat="45.99712" lon="3.71481">
        <ele>892.35</ele>
        <time>2025-09-27T13:00:11Z</time>
      </trkpt>
      <trkpt lat="45.99715" lon="3.71406">
        <ele>895.94</ele>
        <time>2025-09-27T13:00:30Z</time>
      </trkpt>
      <trkpt lat="45.99692" lon="3.71345">
        <ele>899.96</ele>
        <time>2025-09-27T13:00:49Z</time>
      </trkpt>
      <trkpt lat="45.99681" lon="3.7128">
        <ele>903.58</ele>
        <time>2025-09-27T13:01:10Z</time>
      </trkpt>
      <trkpt lat="45.99646" lon="3.71339">
        <ele>907.49</ele>
        <time>2025-09-27T13:01:29Z</time>
      </trkpt>
      <trkpt lat="45.99606" lon="3.71388">
        <ele>913.47</ele>
        <time>2025-09-27T13:01:51Z</time>
      </trkpt>
      <trkpt lat="45.99555" lon="3.71404">
        <ele>918.05</ele>
        <time>2025-09-27T13:02:12Z</time>
      </trkpt>
      <trkpt lat="45.99519" lon="3.71353">
        <ele>924.77</ele>
        <time>2025-09-27T13:02:33Z</time>
      </trkpt>
      <trkpt lat="45.99519" lon="3.7128">
        <ele>935.09</ele>
        <time>2025-09-27T13:02:59Z</time>
      </trkpt>
      <trkpt lat="45.99525" lon="3.71208">
        <ele>946.82</ele>
        <time>2025-09-27T13:03:25Z</time>
      </trkpt>
      <trkpt lat="45.99515" lon="3.71142">
        <ele>957.59</ele>
        <time>2025-09-27T13:03:51Z</time>
      </trkpt>
      <trkpt lat="45.99503" lon="3.71077">
        <ele>962.3</ele>
        <time>2025-09-27T13:04:13Z</time>
      </trkpt>
      <trkpt lat="45.99468" lon="3.71031">
        <ele>961.15</ele>
        <time>2025-09-27T13:04:32Z</time>
      </trkpt>
      <trkpt lat="45.99506" lon="3.71004">
        <ele>959.36</ele>
        <time>2025-09-27T13:04:49Z</time>
      </trkpt>
      <trkpt lat="45.99549" lon="3.70983">
        <ele>960.15</ele>
        <time>2025-09-27T13:05:01Z</time>
      </trkpt>
      <trkpt lat="45.99591" lon="3.7095">
        <ele>960.33</ele>
        <time>2025-09-27T13:05:15Z</time>
      </trkpt>
      <trkpt lat="45.99636" lon="3.7093">
        <ele>958.25</ele>
        <time>2025-09-27T13:05:32Z</time>
      </trkpt>
      <trkpt lat="45.99685" lon="3.7092">
        <ele>957.34</ele>
        <time>2025-09-27T13:05:43Z</time>
      </trkpt>
      <trkpt lat="45.99735" lon="3.70908">
        <ele>956.61</ele>
        <time>2025-09-27T13:05:53Z</time>
      </trkpt>
      <trkpt lat="45.99779" lon="3.70904">
        <ele>956.58</ele>
        <time>2025-09-27T13:06:02Z</time>
      </trkpt>
      <trkpt lat="45.99827" lon="3.70907">
        <ele>956.74</ele>
        <time>2025-09-27T13:06:13Z</time>
      </trkpt>
      <trkpt lat="45.99876" lon="3.70916">
        <ele>955.62</ele>
        <time>2025-09-27T13:06:21Z</time>
      </trkpt>
      <trkpt lat="45.9993" lon="3.70914">
        <ele>952.84</ele>
        <time>2025-09-27T13:06:27Z</time>
      </trkpt>
      <trkpt lat="45.99981" lon="3.70921">
        <ele>947.5</ele>
        <time>2025-09-27T13:06:33Z</time>
      </trkpt>
      <trkpt lat="46.00027" lon="3.70906">
        <ele>942.49</ele>
        <time>2025-09-27T13:06:40Z</time>
      </trkpt>
      <trkpt lat="46.00067" lon="3.7087">
        <ele>939.39</ele>
        <time>2025-09-27T13:06:48Z</time>
      </trkpt>
      <trkpt lat="46.00118" lon="3.70848">
        <ele>932.78</ele>
        <time>2025-09-27T13:06:57Z</time>
      </trkpt>
      <trkpt lat="46.00166" lon="3.7083">
        <ele>925.67</ele>
        <time>2025-09-27T13:07:05Z</time>
      </trkpt>
      <trkpt lat="46.00214" lon="3.70827">
        <ele>921.76</ele>
        <time>2025-09-27T13:07:11Z</time>
      </trkpt>
      <trkpt lat="46.00266" lon="3.70836">
        <ele>917.26</ele>
        <time>2025-09-27T13:07:17Z</time>
      </trkpt>
      <trkpt lat="46.00301" lon="3.70789">
        <ele>908.85</ele>
        <time>2025-09-27T13:07:23Z</time>
      </trkpt>
      <trkpt lat="46.00334" lon="3.70738">
        <ele>901.41</ele>
        <time>2025-09-27T13:07:28Z</time>
      </trkpt>
      <trkpt lat="46.00384" lon="3.70705">
        <ele>897.29</ele>
        <time>2025-09-27T13:07:33Z</time>
      </trkpt>
      <trkpt lat="46.00435" lon="3.707">
        <ele>895.09</ele>
        <time>2025-09-27T13:07:38Z</time>
      </trkpt>
      <trkpt lat="46.0048" lon="3.70692">
        <ele>892.97</ele>
        <time>2025-09-27T13:07:43Z</time>
      </trkpt>
      <trkpt lat="46.00527" lon="3.70689">
        <ele>891.37</ele>
        <time>2025-09-27T13:07:49Z</time>
      </trkpt>
      <trkpt lat="46.00576" lon="3.70672">
        <ele>889.26</ele>
        <time>2025-09-27T13:07:56Z</time>
      </trkpt>
      <trkpt lat="46.00623" lon="3.70648">
        <ele>888.87</ele>
        <time>2025-09-27T13:08:06Z</time>
      </trkpt>
      <trkpt lat="46.00674" lon="3.70616">
        <ele>888.87</ele>
        <time>2025-09-27T13:08:16Z</time>
      </trkpt>
      <trkpt lat="46.00715" lon="3.70577">
        <ele>889.8</ele>
        <time>2025-09-27T13:08:25Z</time>
      </trkpt>
      <trkpt lat="46.00754" lon="3.70539">
        <ele>891.51</ele>
        <time>2025-09-27T13:08:34Z</time>
      </trkpt>
      <trkpt lat="46.00796" lon="3.70517">
        <ele>894.22</ele>
        <time>2025-09-27T13:08:44Z</time>
      </trkpt>
      <trkpt lat="46.0084" lon="3.70488">
        <ele>898.03</ele>
        <time>2025-09-27T13:08:55Z</time>
      </trkpt>
      <trkpt lat="46.00885" lon="3.70462">
        <ele>900.73</ele>
        <time>2025-09-27T13:09:06Z</time>
      </trkpt>
      <trkpt lat="46.0093" lon="3.70446">
        <ele>900.24</ele>
        <time>2025-09-27T13:09:16Z</time>
      </trkpt>
      <trkpt lat="46.00981" lon="3.70421">
        <ele>900.33</ele>
        <time>2025-09-27T13:09:27Z</time>
      </trkpt>
      <trkpt lat="46.01027" lon="3.70405">
        <ele>895.92</ele>
        <time>2025-09-27T13:09:34Z</time>
      </trkpt>
      <trkpt lat="46.01068" lon="3.70412">
        <ele>893.77</ele>
        <time>2025-09-27T13:09:41Z</time>
      </trkpt>
      <trkpt lat="46.011" lon="3.70369">
        <ele>890.21</ele>
        <time>2025-09-27T13:09:52Z</time>
      </trkpt>
      <trkpt lat="46.01137" lon="3.70311">
        <ele>885.86</ele>
        <time>2025-09-27T13:10:02Z</time>
      </trkpt>
      <trkpt lat="46.01195" lon="3.70282">
        <ele>881.67</ele>
        <time>2025-09-27T13:10:21Z</time>
      </trkpt>
      <trkpt lat="46.0125" lon="3.70254">
        <ele>873.6</ele>
        <time>2025-09-27T13:10:36Z</time>
      </trkpt>
      <trkpt lat="46.01304" lon="3.70218">
        <ele>865.43</ele>
        <time>2025-09-27T13:10:51Z</time>
      </trkpt>
      <trkpt lat="46.01343" lon="3.70161">
        <ele>854.55</ele>
        <time>2025-09-27T13:11:10Z</time>
      </trkpt>
      <trkpt lat="46.01359" lon="3.70084">
        <ele>841.62</ele>
        <time>2025-09-27T13:11:23Z</time>
      </trkpt>
      <trkpt lat="46.01371" lon="3.70021">
        <ele>832.78</ele>
        <time>2025-09-27T13:11:39Z</time>
      </trkpt>
      <trkpt lat="46.0139" lon="3.69925">
        <ele>820.18</ele>
        <time>2025-09-27T13:11:59Z</time>
      </trkpt>
      <trkpt lat="46.01394" lon="3.69851">
        <ele>809.47</ele>
        <time>2025-09-27T13:12:09Z</time>
      </trkpt>
      <trkpt lat="46.0137" lon="3.69789">
        <ele>804.91</ele>
        <time>2025-09-27T13:12:18Z</time>
      </trkpt>
      <trkpt lat="46.01353" lon="3.69718">
        <ele>798.95</ele>
        <time>2025-09-27T13:12:26Z</time>
      </trkpt>
      <trkpt lat="46.01346" lon="3.69648">
        <ele>791.67</ele>
        <time>2025-09-27T13:12:34Z</time>
      </trkpt>
      <trkpt lat="46.01359" lon="3.6957">
        <ele>783.84</ele>
        <time>2025-09-27T13:12:41Z</time>
      </trkpt>
      <trkpt lat="46.01372" lon="3.69508">
        <ele>780.28</ele>
        <time>2025-09-27T13:12:46Z</time>
      </trkpt>
      <trkpt lat="46.01384" lon="3.69445">
        <ele>776.75</ele>
        <time>2025-09-27T13:12:51Z</time>
      </trkpt>
      <trkpt lat="46.01406" lon="3.69376">
        <ele>771.93</ele>
        <time>2025-09-27T13:12:57Z</time>
      </trkpt>
      <trkpt lat="46.01418" lon="3.69302">
        <ele>767.46</ele>
        <time>2025-09-27T13:13:05Z</time>
      </trkpt>
      <trkpt lat="46.01414" lon="3.69231">
        <ele>758.9</ele>
        <time>2025-09-27T13:13:12Z</time>
      </trkpt>
      <trkpt lat="46.0141" lon="3.69168">
        <ele>750.41</ele>
        <time>2025-09-27T13:13:20Z</time>
      </trkpt>
      <trkpt lat="46.01457" lon="3.69135">
        <ele>744.47</ele>
        <time>2025-09-27T13:13:27Z</time>
      </trkpt>
      <trkpt lat="46.01505" lon="3.69109">
        <ele>742</ele>
        <time>2025-09-27T13:13:33Z</time>
      </trkpt>
      <trkpt lat="46.01547" lon="3.69068">
        <ele>737.72</ele>
        <time>2025-09-27T13:13:39Z</time>
      </trkpt>
      <trkpt lat="46.01572" lon="3.69012">
        <ele>734.11</ele>
        <time>2025-09-27T13:13:44Z</time>
      </trkpt>
      <trkpt lat="46.01581" lon="3.68942">
        <ele>732.2</ele>
        <time>2025-09-27T13:13:50Z</time>
      </trkpt>
      <trkpt lat="46.01541" lon="3.68894">
        <ele>729.96</ele>
        <time>2025-09-27T13:13:56Z</time>
      </trkpt>
      <trkpt lat="46.01487" lon="3.68878">
        <ele>727.84</ele>
        <time>2025-09-27T13:14:02Z</time>
      </trkpt>
      <trkpt lat="46.01438" lon="3.68884">
        <ele>724.8</ele>
        <time>2025-09-27T13:14:08Z</time>
      </trkpt>
      <trkpt lat="46.01396" lon="3.68865">
        <ele>720.21</ele>
        <time>2025-09-27T13:14:17Z</time>
      </trkpt>
      <trkpt lat="46.01417" lon="3.68804">
        <ele>718.74</ele>
        <time>2025-09-27T13:14:28Z</time>
      </trkpt>
      <trkpt lat="46.01408" lon="3.6874">
        <ele>719.29</ele>
        <time>2025-09-27T13:14:39Z</time>
      </trkpt>
      <trkpt lat="46.01391" lon="3.68677">
        <ele>721.16</ele>
        <time>2025-09-27T13:14:51Z</time>
      </trkpt>
      <trkpt lat="46.01383" lon="3.68624">
        <ele>726.2</ele>
        <time>2025-09-27T13:15:06Z</time>
      </trkpt>
      <trkpt lat="46.01429" lon="3.68633">
        <ele>731.55</ele>
        <time>2025-09-27T13:15:25Z</time>
      </trkpt>
      <trkpt lat="46.01476" lon="3.68641">
        <ele>735.45</ele>
        <time>2025-09-27T13:15:45Z</time>
      </trkpt>
      <trkpt lat="46.01522" lon="3.68631">
        <ele>742.01</ele>
        <time>2025-09-27T13:16:03Z</time>
      </trkpt>
      <trkpt lat="46.01567" lon="3.68608">
        <ele>747.93</ele>
        <time>2025-09-27T13:16:21Z</time>
      </trkpt>
      <trkpt lat="46.01608" lon="3.68579">
        <ele>752.37</ele>
        <time>2025-09-27T13:16:38Z</time>
      </trkpt>
      <trkpt lat="46.01649" lon="3.68563">
        <ele>756.21</ele>
        <time>2025-09-27T13:16:55Z</time>
      </trkpt>
      <trkpt lat="46.0168" lon="3.68626">
        <ele>759.33</ele>
        <time>2025-09-27T13:17:14Z</time>
      </trkpt>
      <trkpt lat="46.01717" lon="3.68675">
        <ele>763.37</ele>
        <time>2025-09-27T13:17:31Z</time>
      </trkpt>
      <trkpt lat="46.01767" lon="3.68717">
        <ele>767.12</ele>
        <time>2025-09-27T13:17:49Z</time>
      </trkpt>
      <trkpt lat="46.01823" lon="3.68736">
        <ele>769.62</ele>
        <time>2025-09-27T13:18:03Z</time>
      </trkpt>
      <trkpt lat="46.01879" lon="3.68726">
        <ele>769.03</ele>
        <time>2025-09-27T13:18:11Z</time>
      </trkpt>
      <trkpt lat="46.01924" lon="3.68738">
        <ele>767.86</ele>
        <time>2025-09-27T13:18:20Z</time>
      </trkpt>
      <trkpt lat="46.01958" lon="3.68784">
        <ele>768.37</ele>
        <time>2025-09-27T13:18:30Z</time>
      </trkpt>
      <trkpt lat="46.01988" lon="3.68833">
        <ele>771.06</ele>
        <time>2025-09-27T13:18:40Z</time>
      </trkpt>
      <trkpt lat="46.02012" lon="3.6889">
        <ele>773.26</ele>
        <time>2025-09-27T13:18:51Z</time>
      </trkpt>
      <trkpt lat="46.02038" lon="3.68949">
        <ele>775.19</ele>
        <time>2025-09-27T13:19:02Z</time>
      </trkpt>
      <trkpt lat="46.02066" lon="3.69007">
        <ele>778.43</ele>
        <time>2025-09-27T13:19:13Z</time>
      </trkpt>
      <trkpt lat="46.02072" lon="3.69078">
        <ele>776.63</ele>
        <time>2025-09-27T13:19:23Z</time>
      </trkpt>
      <trkpt lat="46.02085" lon="3.69136">
        <ele>776.19</ele>
        <time>2025-09-27T13:19:32Z</time>
      </trkpt>
      <trkpt lat="46.02126" lon="3.69166">
        <ele>776.5</ele>
        <time>2025-09-27T13:19:44Z</time>
      </trkpt>
      <trkpt lat="46.02173" lon="3.69159">
        <ele>776.12</ele>
        <time>2025-09-27T13:19:54Z</time>
      </trkpt>
      <trkpt lat="46.02224" lon="3.69162">
        <ele>777.32</ele>
        <time>2025-09-27T13:20:05Z</time>
      </trkpt>
      <trkpt lat="46.0227" lon="3.69174">
        <ele>777.62</ele>
        <time>2025-09-27T13:20:17Z</time>
      </trkpt>
      <trkpt lat="46.0232" lon="3.69168">
        <ele>780.75</ele>
        <time>2025-09-27T13:20:30Z</time>
      </trkpt>
      <trkpt lat="46.02357" lon="3.69125">
        <ele>781.53</ele>
        <time>2025-09-27T13:20:42Z</time>
      </trkpt>
      <trkpt lat="46.02388" lon="3.69073">
        <ele>781.32</ele>
        <time>2025-09-27T13:20:53Z</time>
      </trkpt>
      <trkpt lat="46.02399" lon="3.69013">
        <ele>777.7</ele>
        <time>2025-09-27T13:21:04Z</time>
      </trkpt>
      <trkpt lat="46.02382" lon="3.6895">
        <ele>766.24</ele>
        <time>2025-09-27T13:21:13Z</time>
      </trkpt>
      <trkpt lat="46.02365" lon="3.68877">
        <ele>765.49</ele>
        <time>2025-09-27T13:21:23Z</time>
      </trkpt>
      <trkpt lat="46.02347" lon="3.68809">
        <ele>762.86</ele>
        <time>2025-09-27T13:21:31Z</time>
      </trkpt>
      <trkpt lat="46.02338" lon="3.68735">
        <ele>759.06</ele>
        <time>2025-09-27T13:21:39Z</time>
      </trkpt>
      <trkpt lat="46.0234" lon="3.68657">
        <ele>752.57</ele>
        <time>2025-09-27T13:21:49Z</time>
      </trkpt>
      <trkpt lat="46.02354" lon="3.68583">
        <ele>747.81</ele>
        <time>2025-09-27T13:21:57Z</time>
      </trkpt>
      <trkpt lat="46.02381" lon="3.68511">
        <ele>742.69</ele>
        <time>2025-09-27T13:22:05Z</time>
      </trkpt>
      <trkpt lat="46.02423" lon="3.68454">
        <ele>731.17</ele>
        <time>2025-09-27T13:22:21Z</time>
      </trkpt>
      <trkpt lat="46.02442" lon="3.68369">
        <ele>730.15</ele>
        <time>2025-09-27T13:22:45Z</time>
      </trkpt>
      <trkpt lat="46.02464" lon="3.68292">
        <ele>729.8</ele>
        <time>2025-09-27T13:23:16Z</time>
      </trkpt>
      <trkpt lat="46.02491" lon="3.68213">
        <ele>739.31</ele>
        <time>2025-09-27T13:23:47Z</time>
      </trkpt>
      <trkpt lat="46.02529" lon="3.6816">
        <ele>746.89</ele>
        <time>2025-09-27T13:24:17Z</time>
      </trkpt>
      <trkpt lat="46.02569" lon="3.68132">
        <ele>752.84</ele>
        <time>2025-09-27T13:24:45Z</time>
      </trkpt>
      <trkpt lat="46.02615" lon="3.68178">
        <ele>768.61</ele>
        <time>2025-09-27T13:29:04Z</time>
      </trkpt>
      <trkpt lat="46.02654" lon="3.68225">
        <ele>774.12</ele>
        <time>2025-09-27T13:29:33Z</time>
      </trkpt>
      <trkpt lat="46.02713" lon="3.68252">
        <ele>778.22</ele>
        <time>2025-09-27T13:29:59Z</time>
      </trkpt>
      <trkpt lat="46.0277" lon="3.68306">
        <ele>781.01</ele>
        <time>2025-09-27T13:30:28Z</time>
      </trkpt>
      <trkpt lat="46.02831" lon="3.68321">
        <ele>790.64</ele>
        <time>2025-09-27T13:31:00Z</time>
      </trkpt>
      <trkpt lat="46.02889" lon="3.6833">
        <ele>809.62</ele>
        <time>2025-09-27T13:31:35Z</time>
      </trkpt>
      <trkpt lat="46.02936" lon="3.68363">
        <ele>824.44</ele>
        <time>2025-09-27T13:32:05Z</time>
      </trkpt>
      <trkpt lat="46.02997" lon="3.68353">
        <ele>827.49</ele>
        <time>2025-09-27T13:32:40Z</time>
      </trkpt>
      <trkpt lat="46.03052" lon="3.68315">
        <ele>830.62</ele>
        <time>2025-09-27T13:33:02Z</time>
      </trkpt>
      <trkpt lat="46.03097" lon="3.68249">
        <ele>835.5</ele>
        <time>2025-09-27T13:33:22Z</time>
      </trkpt>
      <trkpt lat="46.03126" lon="3.68184">
        <ele>836.69</ele>
        <time>2025-09-27T13:33:35Z</time>
      </trkpt>
      <trkpt lat="46.03156" lon="3.68108">
        <ele>839.4</ele>
        <time>2025-09-27T13:33:50Z</time>
      </trkpt>
      <trkpt lat="46.03186" lon="3.68051">
        <ele>845.11</ele>
        <time>2025-09-27T13:34:03Z</time>
      </trkpt>
      <trkpt lat="46.0322" lon="3.68">
        <ele>845.3</ele>
        <time>2025-09-27T13:34:14Z</time>
      </trkpt>
      <trkpt lat="46.03259" lon="3.67965">
        <ele>846.33</ele>
        <time>2025-09-27T13:34:24Z</time>
      </trkpt>
      <trkpt lat="46.03299" lon="3.67933">
        <ele>849.12</ele>
        <time>2025-09-27T13:34:34Z</time>
      </trkpt>
      <trkpt lat="46.03333" lon="3.67886">
        <ele>847.66</ele>
        <time>2025-09-27T13:34:43Z</time>
      </trkpt>
      <trkpt lat="46.03348" lon="3.67816">
        <ele>845.88</ele>
        <time>2025-09-27T13:34:50Z</time>
      </trkpt>
      <trkpt lat="46.03345" lon="3.67738">
        <ele>842.35</ele>
        <time>2025-09-27T13:34:56Z</time>
      </trkpt>
      <trkpt lat="46.03344" lon="3.67651">
        <ele>838.77</ele>
        <time>2025-09-27T13:35:02Z</time>
      </trkpt>
      <trkpt lat="46.03346" lon="3.67568">
        <ele>835.86</ele>
        <time>2025-09-27T13:35:07Z</time>
      </trkpt>
      <trkpt lat="46.03333" lon="3.6749">
        <ele>831.5</ele>
        <time>2025-09-27T13:35:12Z</time>
      </trkpt>
      <trkpt lat="46.03332" lon="3.67421">
        <ele>828.48</ele>
        <time>2025-09-27T13:35:17Z</time>
      </trkpt>
      <trkpt lat="46.03347" lon="3.67361">
        <ele>825.16</ele>
        <time>2025-09-27T13:35:22Z</time>
      </trkpt>
      <trkpt lat="46.03347" lon="3.67297">
        <ele>822.2</ele>
        <time>2025-09-27T13:35:28Z</time>
      </trkpt>
      <trkpt lat="46.03343" lon="3.67232">
        <ele>823.48</ele>
        <time>2025-09-27T13:36:01Z</time>
      </trkpt>
      <trkpt lat="46.03313" lon="3.67173">
        <ele>824.92</ele>
        <time>2025-09-27T13:36:13Z</time>
      </trkpt>
      <trkpt lat="46.03282" lon="3.67109">
        <ele>826.24</ele>
        <time>2025-09-27T13:36:26Z</time>
      </trkpt>
      <trkpt lat="46.03257" lon="3.67047">
        <ele>827.39</ele>
        <time>2025-09-27T13:36:37Z</time>
      </trkpt>
      <trkpt lat="46.0327" lon="3.66966">
        <ele>821.41</ele>
        <time>2025-09-27T13:36:47Z</time>
      </trkpt>
      <trkpt lat="46.03287" lon="3.66903">
        <ele>815.62</ele>
        <time>2025-09-27T13:36:53Z</time>
      </trkpt>
      <trkpt lat="46.03285" lon="3.66838">
        <ele>809.01</ele>
        <time>2025-09-27T13:37:00Z</time>
      </trkpt>
      <trkpt lat="46.03322" lon="3.66816">
        <ele>805.89</ele>
        <time>2025-09-27T13:37:16Z</time>
      </trkpt>
      <trkpt lat="46.03372" lon="3.66814">
        <ele>802.56</ele>
        <time>2025-09-27T13:37:25Z</time>
      </trkpt>
      <trkpt lat="46.03423" lon="3.6682">
        <ele>800.74</ele>
        <time>2025-09-27T13:37:34Z</time>
      </trkpt>
      <trkpt lat="46.0348" lon="3.66843">
        <ele>795.9</ele>
        <time>2025-09-27T13:37:43Z</time>
      </trkpt>
      <trkpt lat="46.03528" lon="3.6687">
        <ele>791.74</ele>
        <time>2025-09-27T13:37:52Z</time>
      </trkpt>
      <trkpt lat="46.03569" lon="3.66914">
        <ele>787.79</ele>
        <time>2025-09-27T13:38:03Z</time>
      </trkpt>
      <trkpt lat="46.03618" lon="3.66935">
        <ele>778.31</ele>
        <time>2025-09-27T13:38:16Z</time>
      </trkpt>
      <trkpt lat="46.03664" lon="3.66937">
        <ele>761.52</ele>
        <time>2025-09-27T13:38:36Z</time>
      </trkpt>
      <trkpt lat="46.0369" lon="3.66876">
        <ele>754.14</ele>
        <time>2025-09-27T13:39:00Z</time>
      </trkpt>
      <trkpt lat="46.03748" lon="3.6684">
        <ele>740.28</ele>
        <time>2025-09-27T13:40:22Z</time>
      </trkpt>
      <trkpt lat="46.03792" lon="3.66907">
        <ele>728.72</ele>
        <time>2025-09-27T13:40:57Z</time>
      </trkpt>
      <trkpt lat="46.03814" lon="3.66966">
        <ele>718.05</ele>
        <time>2025-09-27T13:41:17Z</time>
      </trkpt>
      <trkpt lat="46.03833" lon="3.67028">
        <ele>713.86</ele>
        <time>2025-09-27T13:41:27Z</time>
      </trkpt>
      <trkpt lat="46.03879" lon="3.67031">
        <ele>708.64</ele>
        <time>2025-09-27T13:41:37Z</time>
      </trkpt>
      <trkpt lat="46.03923" lon="3.67011">
        <ele>705.13</ele>
        <time>2025-09-27T13:41:46Z</time>
      </trkpt>
      <trkpt lat="46.03965" lon="3.66984">
        <ele>703.55</ele>
        <time>2025-09-27T13:41:55Z</time>
      </trkpt>
      <trkpt lat="46.04003" lon="3.66946">
        <ele>700.03</ele>
        <time>2025-09-27T13:46:10Z</time>
      </trkpt>
      <trkpt lat="46.04049" lon="3.66934">
        <ele>701.01</ele>
        <time>2025-09-27T13:46:22Z</time>
      </trkpt>
      <trkpt lat="46.04094" lon="3.66923">
        <ele>700.76</ele>
        <time>2025-09-27T13:46:33Z</time>
      </trkpt>
      <trkpt lat="46.04139" lon="3.66915">
        <ele>701.19</ele>
        <time>2025-09-27T13:46:44Z</time>
      </trkpt>
      <trkpt lat="46.04182" lon="3.66895">
        <ele>701.65</ele>
        <time>2025-09-27T13:46:55Z</time>
      </trkpt>
      <trkpt lat="46.04225" lon="3.66875">
        <ele>703.05</ele>
        <time>2025-09-27T13:47:06Z</time>
      </trkpt>
      <trkpt lat="46.04271" lon="3.6687">
        <ele>704.79</ele>
        <time>2025-09-27T13:47:18Z</time>
      </trkpt>
      <trkpt lat="46.04316" lon="3.6687">
        <ele>706.07</ele>
        <time>2025-09-27T13:47:29Z</time>
      </trkpt>
      <trkpt lat="46.04363" lon="3.66867">
        <ele>707.47</ele>
        <time>2025-09-27T13:47:40Z</time>
      </trkpt>
      <trkpt lat="46.04407" lon="3.66882">
        <ele>707.6</ele>
        <time>2025-09-27T13:47:51Z</time>
      </trkpt>
      <trkpt lat="46.04459" lon="3.66898">
        <ele>705.36</ele>
        <time>2025-09-27T13:48:03Z</time>
      </trkpt>
      <trkpt lat="46.04508" lon="3.6693">
        <ele>705.89</ele>
        <time>2025-09-27T13:48:15Z</time>
      </trkpt>
      <trkpt lat="46.04552" lon="3.66957">
        <ele>706.3</ele>
        <time>2025-09-27T13:48:26Z</time>
      </trkpt>
      <trkpt lat="46.04596" lon="3.66983">
        <ele>707.22</ele>
        <time>2025-09-27T13:48:39Z</time>
      </trkpt>
      <trkpt lat="46.04645" lon="3.67005">
        <ele>706.27</ele>
        <time>2025-09-27T13:48:50Z</time>
      </trkpt>
      <trkpt lat="46.04684" lon="3.6704">
        <ele>704.4</ele>
        <time>2025-09-27T13:48:59Z</time>
      </trkpt>
      <trkpt lat="46.04728" lon="3.67051">
        <ele>703.4</ele>
        <time>2025-09-27T13:49:09Z</time>
      </trkpt>
      <trkpt lat="46.04769" lon="3.6707">
        <ele>698.95</ele>
        <time>2025-09-27T13:49:20Z</time>
      </trkpt>
      <trkpt lat="46.04835" lon="3.67059">
        <ele>695.69</ele>
        <time>2025-09-27T13:49:39Z</time>
      </trkpt>
      <trkpt lat="46.04891" lon="3.67012">
        <ele>687.41</ele>
        <time>2025-09-27T13:49:55Z</time>
      </trkpt>
      <trkpt lat="46.04941" lon="3.66962">
        <ele>677.35</ele>
        <time>2025-09-27T13:50:13Z</time>
      </trkpt>
      <trkpt lat="46.04951" lon="3.67014">
        <ele>664.64</ele>
        <time>2025-09-27T13:50:33Z</time>
      </trkpt>
      <trkpt lat="46.04912" lon="3.67058">
        <ele>666.76</ele>
        <time>2025-09-27T13:50:50Z</time>
      </trkpt>
      <trkpt lat="46.04872" lon="3.67091">
        <ele>669.83</ele>
        <time>2025-09-27T13:51:08Z</time>
      </trkpt>
      <trkpt lat="46.04832" lon="3.67129">
        <ele>673.78</ele>
        <time>2025-09-27T13:51:24Z</time>
      </trkpt>
      <trkpt lat="46.04793" lon="3.67165">
        <ele>677.89</ele>
        <time>2025-09-27T13:51:38Z</time>
      </trkpt>
      <trkpt lat="46.04751" lon="3.67197">
        <ele>680.85</ele>
        <time>2025-09-27T13:51:52Z</time>
      </trkpt>
      <trkpt lat="46.04706" lon="3.6721">
        <ele>684.6</ele>
        <time>2025-09-27T13:52:07Z</time>
      </trkpt>
      <trkpt lat="46.0466" lon="3.67233">
        <ele>689.75</ele>
        <time>2025-09-27T13:52:23Z</time>
      </trkpt>
      <trkpt lat="46.04614" lon="3.67251">
        <ele>693.06</ele>
        <time>2025-09-27T13:52:38Z</time>
      </trkpt>
      <trkpt lat="46.04571" lon="3.67269">
        <ele>696.87</ele>
        <time>2025-09-27T13:52:53Z</time>
      </trkpt>
      <trkpt lat="46.04525" lon="3.67266">
        <ele>701.43</ele>
        <time>2025-09-27T13:53:10Z</time>
      </trkpt>
      <trkpt lat="46.04479" lon="3.67255">
        <ele>705.07</ele>
        <time>2025-09-27T13:53:26Z</time>
      </trkpt>
      <trkpt lat="46.04445" lon="3.67214">
        <ele>710.78</ele>
        <time>2025-09-27T13:53:43Z</time>
      </trkpt>
      <trkpt lat="46.04437" lon="3.67148">
        <ele>711.6</ele>
        <time>2025-09-27T13:53:59Z</time>
      </trkpt>
      <trkpt lat="46.04417" lon="3.67088">
        <ele>708.5</ele>
        <time>2025-09-27T13:54:12Z</time>
      </trkpt>
      <trkpt lat="46.04404" lon="3.67024">
        <ele>707.17</ele>
        <time>2025-09-27T13:54:23Z</time>
      </trkpt>
      <trkpt lat="46.04406" lon="3.66956">
        <ele>706.66</ele>
        <time>2025-09-27T13:54:34Z</time>
      </trkpt>
      <trkpt lat="46.04391" lon="3.66894">
        <ele>707.05</ele>
        <time>2025-09-27T13:54:45Z</time>
      </trkpt>
      <trkpt lat="46.04402" lon="3.66945">
        <ele>706.35</ele>
        <time>2025-09-27T13:55:00Z</time>
      </trkpt>
      <trkpt lat="46.04404" lon="3.67014">
        <ele>706.45</ele>
        <time>2025-09-27T13:55:11Z</time>
      </trkpt>
      <trkpt lat="46.0441" lon="3.67077">
        <ele>707.58</ele>
        <time>2025-09-27T13:55:22Z</time>
      </trkpt>
      <trkpt lat="46.04433" lon="3.67138">
        <ele>711</ele>
        <time>2025-09-27T13:55:35Z</time>
      </trkpt>
      <trkpt lat="46.04441" lon="3.67205">
        <ele>710.77</ele>
        <time>2025-09-27T13:55:48Z</time>
      </trkpt>
      <trkpt lat="46.04471" lon="3.67254">
        <ele>705.25</ele>
        <time>2025-09-27T13:56:00Z</time>
      </trkpt>
      <trkpt lat="46.04518" lon="3.67267">
        <ele>700.04</ele>
        <time>2025-09-27T13:56:13Z</time>
      </trkpt>
      <trkpt lat="46.04565" lon="3.67268">
        <ele>695.46</ele>
        <time>2025-09-27T13:56:38Z</time>
      </trkpt>
      <trkpt lat="46.04608" lon="3.67255">
        <ele>691.05</ele>
        <time>2025-09-27T13:56:50Z</time>
      </trkpt>
      <trkpt lat="46.04653" lon="3.67237">
        <ele>687.62</ele>
        <time>2025-09-27T13:57:01Z</time>
      </trkpt>
      <trkpt lat="46.04699" lon="3.67212">
        <ele>683.03</ele>
        <time>2025-09-27T13:57:12Z</time>
      </trkpt>
      <trkpt lat="46.04747" lon="3.67199">
        <ele>677.44</ele>
        <time>2025-09-27T13:57:22Z</time>
      </trkpt>
      <trkpt lat="46.0479" lon="3.67168">
        <ele>675.76</ele>
        <time>2025-09-27T13:57:34Z</time>
      </trkpt>
      <trkpt lat="46.04829" lon="3.67131">
        <ele>672.38</ele>
        <time>2025-09-27T13:57:47Z</time>
      </trkpt>
      <trkpt lat="46.04869" lon="3.67093">
        <ele>667.88</ele>
        <time>2025-09-27T13:58:05Z</time>
      </trkpt>
      <trkpt lat="46.0491" lon="3.67058">
        <ele>663.16</ele>
        <time>2025-09-27T14:01:28Z</time>
      </trkpt>
      <trkpt lat="46.04951" lon="3.67012">
        <ele>658.98</ele>
        <time>2025-09-27T14:01:37Z</time>
      </trkpt>
      <trkpt lat="46.04994" lon="3.66974">
        <ele>655.22</ele>
        <time>2025-09-27T14:01:45Z</time>
      </trkpt>
      <trkpt lat="46.05037" lon="3.66933">
        <ele>650.96</ele>
        <time>2025-09-27T14:01:52Z</time>
      </trkpt>
      <trkpt lat="46.05057" lon="3.66873">
        <ele>646.87</ele>
        <time>2025-09-27T14:01:59Z</time>
      </trkpt>
      <trkpt lat="46.05041" lon="3.66809">
        <ele>644.87</ele>
        <time>2025-09-27T14:02:06Z</time>
      </trkpt>
      <trkpt lat="46.05027" lon="3.66751">
        <ele>641.53</ele>
        <time>2025-09-27T14:02:15Z</time>
      </trkpt>
      <trkpt lat="46.05058" lon="3.6673">
        <ele>636.01</ele>
        <time>2025-09-27T14:02:30Z</time>
      </trkpt>
      <trkpt lat="46.05073" lon="3.66794">
        <ele>634.09</ele>
        <time>2025-09-27T14:02:41Z</time>
      </trkpt>
      <trkpt lat="46.05105" lon="3.66857">
        <ele>633.19</ele>
        <time>2025-09-27T14:02:56Z</time>
      </trkpt>
      <trkpt lat="46.05096" lon="3.66926">
        <ele>636.88</ele>
        <time>2025-09-27T14:03:13Z</time>
      </trkpt>
      <trkpt lat="46.05054" lon="3.66995">
        <ele>640.03</ele>
        <time>2025-09-27T14:03:36Z</time>
      </trkpt>
      <trkpt lat="46.05017" lon="3.67055">
        <ele>642.83</ele>
        <time>2025-09-27T14:03:57Z</time>
      </trkpt>
      <trkpt lat="46.04963" lon="3.67099">
        <ele>642.83</ele>
        <time>2025-09-27T14:04:15Z</time>
      </trkpt>
      <trkpt lat="46.04912" lon="3.67135">
        <ele>643.11</ele>
        <time>2025-09-27T14:04:29Z</time>
      </trkpt>
      <trkpt lat="46.04867" lon="3.67192">
        <ele>643.91</ele>
        <time>2025-09-27T14:04:47Z</time>
      </trkpt>
      <trkpt lat="46.04826" lon="3.67244">
        <ele>646.21</ele>
        <time>2025-09-27T14:05:05Z</time>
      </trkpt>
      <trkpt lat="46.04788" lon="3.67297">
        <ele>648.9</ele>
        <time>2025-09-27T14:05:27Z</time>
      </trkpt>
      <trkpt lat="46.04757" lon="3.67355">
        <ele>651.12</ele>
        <time>2025-09-27T14:05:48Z</time>
      </trkpt>
      <trkpt lat="46.04723" lon="3.67401">
        <ele>651.66</ele>
        <time>2025-09-27T14:06:09Z</time>
      </trkpt>
      <trkpt lat="46.04758" lon="3.67418">
        <ele>652.4</ele>
        <time>2025-09-27T14:06:41Z</time>
      </trkpt>
      <trkpt lat="46.04821" lon="3.67453">
        <ele>650.83</ele>
        <time>2025-09-27T14:08:13Z</time>
      </trkpt>
      <trkpt lat="46.04867" lon="3.67453">
        <ele>646.46</ele>
        <time>2025-09-27T14:08:36Z</time>
      </trkpt>
      <trkpt lat="46.04911" lon="3.67418">
        <ele>642.16</ele>
        <time>2025-09-27T14:08:59Z</time>
      </trkpt>
      <trkpt lat="46.04951" lon="3.67358">
        <ele>636.49</ele>
        <time>2025-09-27T14:09:14Z</time>
      </trkpt>
      <trkpt lat="46.04998" lon="3.67377">
        <ele>631.1</ele>
        <time>2025-09-27T14:09:33Z</time>
      </trkpt>
      <trkpt lat="46.05007" lon="3.6746">
        <ele>620.82</ele>
        <time>2025-09-27T14:09:52Z</time>
      </trkpt>
      <trkpt lat="46.05051" lon="3.6743">
        <ele>611.63</ele>
        <time>2025-09-27T14:10:09Z</time>
      </trkpt>
      <trkpt lat="46.05044" lon="3.67468">
        <ele>600.76</ele>
        <time>2025-09-27T14:10:39Z</time>
      </trkpt>
      <trkpt lat="46.05013" lon="3.67525">
        <ele>598.55</ele>
        <time>2025-09-27T14:10:50Z</time>
      </trkpt>
      <trkpt lat="46.05003" lon="3.67584">
        <ele>598.4</ele>
        <time>2025-09-27T14:11:01Z</time>
      </trkpt>
      <trkpt lat="46.05" lon="3.67557">
        <ele>594.12</ele>
        <time>2025-09-27T14:11:48Z</time>
      </trkpt>
      <trkpt lat="46.05023" lon="3.67501">
        <ele>595.06</ele>
        <time>2025-09-27T14:12:04Z</time>
      </trkpt>
      <trkpt lat="46.0505" lon="3.67443">
        <ele>597.36</ele>
        <time>2025-09-27T14:12:20Z</time>
      </trkpt>
      <trkpt lat="46.05053" lon="3.67374">
        <ele>595.82</ele>
        <time>2025-09-27T14:12:33Z</time>
      </trkpt>
      <trkpt lat="46.05041" lon="3.67299">
        <ele>594.78</ele>
        <time>2025-09-27T14:12:42Z</time>
      </trkpt>
      <trkpt lat="46.05079" lon="3.6726">
        <ele>588.03</ele>
        <time>2025-09-27T14:12:52Z</time>
      </trkpt>
      <trkpt lat="46.05125" lon="3.6724">
        <ele>589.44</ele>
        <time>2025-09-27T14:13:02Z</time>
      </trkpt>
      <trkpt lat="46.05172" lon="3.67256">
        <ele>587.42</ele>
        <time>2025-09-27T14:13:12Z</time>
      </trkpt>
      <trkpt lat="46.05218" lon="3.6729">
        <ele>586.67</ele>
        <time>2025-09-27T14:13:19Z</time>
      </trkpt>
      <trkpt lat="46.05259" lon="3.6732">
        <ele>584.47</ele>
        <time>2025-09-27T14:13:26Z</time>
      </trkpt>
      <trkpt lat="46.05304" lon="3.67353">
        <ele>580.28</ele>
        <time>2025-09-27T14:13:32Z</time>
      </trkpt>
      <trkpt lat="46.05344" lon="3.67383">
        <ele>577.9</ele>
        <time>2025-09-27T14:13:38Z</time>
      </trkpt>
      <trkpt lat="46.05393" lon="3.67378">
        <ele>572.31</ele>
        <time>2025-09-27T14:13:45Z</time>
      </trkpt>
      <trkpt lat="46.05434" lon="3.67349">
        <ele>569.36</ele>
        <time>2025-09-27T14:13:50Z</time>
      </trkpt>
      <trkpt lat="46.05472" lon="3.67309">
        <ele>569.27</ele>
        <time>2025-09-27T14:13:56Z</time>
      </trkpt>
      <trkpt lat="46.05506" lon="3.67262">
        <ele>565.62</ele>
        <time>2025-09-27T14:14:04Z</time>
      </trkpt>
      <trkpt lat="46.0555" lon="3.67218">
        <ele>560.42</ele>
        <time>2025-09-27T14:14:10Z</time>
      </trkpt>
      <trkpt lat="46.05593" lon="3.67184">
        <ele>562.25</ele>
        <time>2025-09-27T14:14:16Z</time>
      </trkpt>
      <trkpt lat="46.05563" lon="3.67142">
        <ele>568.17</ele>
        <time>2025-09-27T14:14:34Z</time>
      </trkpt>
      <trkpt lat="46.05564" lon="3.67087">
        <ele>570.5</ele>
        <time>2025-09-27T14:15:07Z</time>
      </trkpt>
      <trkpt lat="46.05582" lon="3.6702">
        <ele>570.23</ele>
        <time>2025-09-27T14:45:29Z</time>
      </trkpt>
      <trkpt lat="46.05594" lon="3.66952">
        <ele>564.43</ele>
        <time>2025-09-27T14:45:37Z</time>
      </trkpt>
      <trkpt lat="46.0561" lon="3.66893">
        <ele>565.94</ele>
        <time>2025-09-27T14:45:44Z</time>
      </trkpt>
      <trkpt lat="46.05638" lon="3.66836">
        <ele>570.96</ele>
        <time>2025-09-27T14:45:55Z</time>
      </trkpt>
      <trkpt lat="46.0563" lon="3.66777">
        <ele>573.43</ele>
        <time>2025-09-27T14:46:07Z</time>
      </trkpt>
      <trkpt lat="46.05622" lon="3.66711">
        <ele>574.75</ele>
        <time>2025-09-27T14:46:19Z</time>
      </trkpt>
      <trkpt lat="46.0565" lon="3.66662">
        <ele>574.51</ele>
        <time>2025-09-27T14:46:31Z</time>
      </trkpt>
      <trkpt lat="46.0569" lon="3.66625">
        <ele>574.05</ele>
        <time>2025-09-27T14:46:40Z</time>
      </trkpt>
      <trkpt lat="46.05738" lon="3.6659">
        <ele>570.72</ele>
        <time>2025-09-27T14:46:49Z</time>
      </trkpt>
      <trkpt lat="46.05776" lon="3.66557">
        <ele>567.61</ele>
        <time>2025-09-27T14:46:55Z</time>
      </trkpt>
      <trkpt lat="46.0582" lon="3.66588">
        <ele>565.41</ele>
        <time>2025-09-27T14:47:02Z</time>
      </trkpt>
      <trkpt lat="46.05854" lon="3.66634">
        <ele>563.47</ele>
        <time>2025-09-27T14:47:08Z</time>
      </trkpt>
      <trkpt lat="46.05891" lon="3.66686">
        <ele>562.36</ele>
        <time>2025-09-27T14:47:15Z</time>
      </trkpt>
      <trkpt lat="46.05932" lon="3.6673">
        <ele>560.63</ele>
        <time>2025-09-27T14:47:22Z</time>
      </trkpt>
      <trkpt lat="46.05978" lon="3.66755">
        <ele>560.93</ele>
        <time>2025-09-27T14:47:30Z</time>
      </trkpt>
      <trkpt lat="46.06023" lon="3.66773">
        <ele>560.73</ele>
        <time>2025-09-27T14:47:38Z</time>
      </trkpt>
      <trkpt lat="46.06073" lon="3.66785">
        <ele>558.57</ele>
        <time>2025-09-27T14:47:46Z</time>
      </trkpt>
      <trkpt lat="46.06125" lon="3.66787">
        <ele>555.15</ele>
        <time>2025-09-27T14:47:53Z</time>
      </trkpt>
      <trkpt lat="46.06176" lon="3.66786">
        <ele>552.71</ele>
        <time>2025-09-27T14:47:59Z</time>
      </trkpt>
      <trkpt lat="46.06224" lon="3.66784">
        <ele>551.73</ele>
        <time>2025-09-27T14:48:05Z</time>
      </trkpt>
      <trkpt lat="46.0627" lon="3.66806">
        <ele>549.06</ele>
        <time>2025-09-27T14:48:12Z</time>
      </trkpt>
      <trkpt lat="46.06309" lon="3.66845">
        <ele>548.73</ele>
        <time>2025-09-27T14:48:19Z</time>
      </trkpt>
      <trkpt lat="46.06335" lon="3.66901">
        <ele>548.53</ele>
        <time>2025-09-27T14:48:27Z</time>
      </trkpt>
      <trkpt lat="46.06378" lon="3.66915">
        <ele>547.84</ele>
        <time>2025-09-27T14:48:38Z</time>
      </trkpt>
      <trkpt lat="46.0642" lon="3.66888">
        <ele>545.73</ele>
        <time>2025-09-27T14:48:48Z</time>
      </trkpt>
      <trkpt lat="46.06466" lon="3.6686">
        <ele>544.36</ele>
        <time>2025-09-27T14:48:56Z</time>
      </trkpt>
      <trkpt lat="46.06512" lon="3.66849">
        <ele>543.6</ele>
        <time>2025-09-27T14:49:04Z</time>
      </trkpt>
      <trkpt lat="46.06556" lon="3.66819">
        <ele>543.7</ele>
        <time>2025-09-27T14:49:13Z</time>
      </trkpt>
      <trkpt lat="46.06597" lon="3.66795">
        <ele>543.81</ele>
        <time>2025-09-27T14:49:22Z</time>
      </trkpt>
      <trkpt lat="46.06646" lon="3.66773">
        <ele>542.67</ele>
        <time>2025-09-27T14:49:31Z</time>
      </trkpt>
      <trkpt lat="46.0669" lon="3.66746">
        <ele>542.04</ele>
        <time>2025-09-27T14:49:39Z</time>
      </trkpt>
      <trkpt lat="46.06738" lon="3.66746">
        <ele>542.49</ele>
        <time>2025-09-27T14:49:47Z</time>
      </trkpt>
      <trkpt lat="46.06785" lon="3.6675">
        <ele>542.83</ele>
        <time>2025-09-27T14:49:58Z</time>
      </trkpt>
      <trkpt lat="46.06832" lon="3.66755">
        <ele>543.49</ele>
        <time>2025-09-27T14:50:16Z</time>
      </trkpt>
      <trkpt lat="46.06878" lon="3.66759">
        <ele>544.33</ele>
        <time>2025-09-27T14:50:29Z</time>
      </trkpt>
      <trkpt lat="46.06926" lon="3.66748">
        <ele>543.78</ele>
        <time>2025-09-27T14:50:39Z</time>
      </trkpt>
      <trkpt lat="46.06974" lon="3.6673">
        <ele>542.44</ele>
        <time>2025-09-27T14:50:48Z</time>
      </trkpt>
      <trkpt lat="46.07018" lon="3.66703">
        <ele>540.85</ele>
        <time>2025-09-27T14:50:56Z</time>
      </trkpt>
      <trkpt lat="46.07026" lon="3.6666">
        <ele>539.75</ele>
        <time>2025-09-27T14:51:05Z</time>
      </trkpt>
      <trkpt lat="46.06981" lon="3.66581">
        <ele>537.7</ele>
      </trkpt>
      <trkpt lat="46.0697" lon="3.66558">
        <ele>541.29</ele>
        <time>2025-09-27T14:51:25Z</time>
      </trkpt>
      <trkpt lat="46.06978" lon="3.6655">
        <ele>540.87</ele>
        <time>2025-09-27T14:51:41Z</time>
      </trkpt>
      <trkpt lat="46.14302" lon="3.4223">
        <ele>312.16</ele>
        <time>2025-09-29T08:18:21Z</time>
      </trkpt>
      <trkpt lat="46.14285" lon="3.42245">
        <ele>295.18</ele>
        <time>2025-09-29T08:20:42Z</time>
      </trkpt>
      <trkpt lat="46.14294" lon="3.42239">
        <ele>311.86</ele>
        <time>2025-09-29T08:25:01Z</time>
      </trkpt>
    </trkseg>
  </trk>
  <trk>
    <name><![CDATA[Mayet Croix Faraude Fradin Mayet_2]]></name>
    <trkseg>
      <trkpt lat="46.06976" lon="3.66544">
        <ele>538.6</ele>
      </trkpt>
      <trkpt lat="46.06976" lon="3.66579">
        <ele>537.9</ele>
        <extensions>
          <visugpx:TrkExtension xmlns:visugpx="https://www.visugpx.com/editgpx/">
            <visugpx:node>1</visugpx:node>
            </visugpx:TrkExtension>
        </extensions>
      </trkpt>
      <trkpt lat="46.07027" lon="3.66659">
        <ele>536.7</ele>
        <extensions>
          <visugpx:TrkExtension xmlns:visugpx="https://www.visugpx.com/editgpx/">
            <visugpx:node>2</visugpx:node>
            </visugpx:TrkExtension>
        </extensions>
      </trkpt>
      <trkpt lat="46.07016" lon="3.667">
        <ele>537.1</ele>
        <extensions>
          <visugpx:TrkExtension xmlns:visugpx="https://www.visugpx.com/editgpx/">
            <visugpx:node>3</visugpx:node>
            </visugpx:TrkExtension>
        </extensions>
      </trkpt>
      <trkpt lat="46.06976" lon="3.66728">
        <ele>539.3</ele>
        <extensions>
          <visugpx:TrkExtension xmlns:visugpx="https://www.visugpx.com/editgpx/">
            <visugpx:node>4</visugpx:node>
            </visugpx:TrkExtension>
        </extensions>
      </trkpt>
      <trkpt lat="46.06969" lon="3.66771">
        <ele>543.3</ele>
        <extensions>
          <visugpx:TrkExtension xmlns:visugpx="https://www.visugpx.com/editgpx/">
            <visugpx:node>5</visugpx:node>
            </visugpx:TrkExtension>
        </extensions>
      </trkpt>
      <trkpt lat="46.07043" lon="3.66838">
        <ele>550.4</ele>
        <extensions>
          <visugpx:TrkExtension xmlns:visugpx="https://www.visugpx.com/editgpx/">
            <visugpx:node>6</visugpx:node>
            </visugpx:TrkExtension>
        </extensions>
      </trkpt>
      <trkpt lat="46.07083" lon="3.66956">
        <ele>552.6</ele>
        <extensions>
          <visugpx:TrkExtension xmlns:visugpx="https://www.visugpx.com/editgpx/">
            <visugpx:node>7</visugpx:node>
            </visugpx:TrkExtension>
        </extensions>
      </trkpt>
      <trkpt lat="46.06842" lon="3.67055">
        <ele>580.7</ele>
        <extensions>
          <visugpx:TrkExtension xmlns:visugpx="https://www.visugpx.com/editgpx/">
            <visugpx:node>8</visugpx:node>
            </visugpx:TrkExtension>
        </extensions>
      </trkpt>
      <trkpt lat="46.06708" lon="3.67068">
        <ele>583.7</ele>
        <extensions>
          <visugpx:TrkExtension xmlns:visugpx="https://www.visugpx.com/editgpx/">
            <visugpx:node>9</visugpx:node>
            </visugpx:TrkExtension>
        </extensions>
      </trkpt>
      <trkpt lat="46.06609" lon="3.67186">
        <ele>582.9</ele>
        <extensions>
          <visugpx:TrkExtension xmlns:visugpx="https://www.visugpx.com/editgpx/">
            <visugpx:node>10</visugpx:node>
            </visugpx:TrkExtension>
        </extensions>
      </trkpt>
      <trkpt lat="46.06522" lon="3.67295">
        <ele>594</ele>
        <extensions>
          <visugpx:TrkExtension xmlns:visugpx="https://www.visugpx.com/editgpx/">
            <visugpx:node>11</visugpx:node>
            </visugpx:TrkExtension>
        </extensions>
      </trkpt>
      <trkpt lat="46.06482" lon="3.67365">
        <ele>599.7</ele>
        <extensions>
          <visugpx:TrkExtension xmlns:visugpx="https://www.visugpx.com/editgpx/">
            <visugpx:node>12</visugpx:node>
            </visugpx:TrkExtension>
        </extensions>
      </trkpt>
      <trkpt lat="46.06438" lon="3.67482">
        <ele>597.3</ele>
        <extensions>
          <visugpx:TrkExtension xmlns:visugpx="https://www.visugpx.com/editgpx/">
            <visugpx:node>13</visugpx:node>
            </visugpx:TrkExtension>
        </extensions>
      </trkpt>
      <trkpt lat="46.06278" lon="3.67728">
        <ele>585.2</ele>
        <extensions>
          <visugpx:TrkExtension xmlns:visugpx="https://www.visugpx.com/editgpx/">
            <visugpx:node>14</visugpx:node>
            </visugpx:TrkExtension>
        </extensions>
      </trkpt>
      <trkpt lat="46.06185" lon="3.67843">
        <ele>593.8</ele>
        <extensions>
          <visugpx:TrkExtension xmlns:visugpx="https://www.visugpx.com/editgpx/">
            <visugpx:node>15</visugpx:node>
            </visugpx:TrkExtension>
        </extensions>
      </trkpt>
      <trkpt lat="46.06097" lon="3.67917">
        <ele>593</ele>
        <extensions>
          <visugpx:TrkExtension xmlns:visugpx="https://www.visugpx.com/editgpx/">
            <visugpx:node>16</visugpx:node>
            </visugpx:TrkExtension>
        </extensions>
      </trkpt>
      <trkpt lat="46.06053" lon="3.67996">
        <ele>587.7</ele>
        <extensions>
          <visugpx:TrkExtension xmlns:visugpx="https://www.visugpx.com/editgpx/">
            <visugpx:node>17</visugpx:node>
            </visugpx:TrkExtension>
        </extensions>
      </trkpt>
      <trkpt lat="46.06019" lon="3.68031">
        <ele>583</ele>
        <extensions>
          <visugpx:TrkExtension xmlns:visugpx="https://www.visugpx.com/editgpx/">
            <visugpx:node>18</visugpx:node>
            </visugpx:TrkExtension>
        </extensions>
      </trkpt>
      <trkpt lat="46.05971" lon="3.68039">
        <ele>579.2</ele>
        <extensions>
          <visugpx:TrkExtension xmlns:visugpx="https://www.visugpx.com/editgpx/">
            <visugpx:node>19</visugpx:node>
            </visugpx:TrkExtension>
        </extensions>
      </trkpt>
      <trkpt lat="46.05934" lon="3.68092">
        <ele>576.4</ele>
        <extensions>
          <visugpx:TrkExtension xmlns:visugpx="https://www.visugpx.com/editgpx/">
            <visugpx:node>20</visugpx:node>
            </visugpx:TrkExtension>
        </extensions>
      </trkpt>
      <trkpt lat="46.05862" lon="3.68119">
        <ele>573.4</ele>
        <extensions>
          <visugpx:TrkExtension xmlns:visugpx="https://www.visugpx.com/editgpx/">
            <visugpx:node>21</visugpx:node>
            </visugpx:TrkExtension>
        </extensions>
      </trkpt>
      <trkpt lat="46.05769" lon="3.68181">
        <ele>572</ele>
        <extensions>
          <visugpx:TrkExtension xmlns:visugpx="https://www.visugpx.com/editgpx/">
            <visugpx:node>22</visugpx:node>
            </visugpx:TrkExtension>
        </extensions>
      </trkpt>
      <trkpt lat="46.05674" lon="3.68221">
        <ele>573.7</ele>
        <extensions>
          <visugpx:TrkExtension xmlns:visugpx="https://www.visugpx.com/editgpx/">
            <visugpx:node>23</visugpx:node>
            </visugpx:TrkExtension>
        </extensions>
      </trkpt>
      <trkpt lat="46.05619" lon="3.68227">
        <ele>574.9</ele>
        <extensions>
          <visugpx:TrkExtension xmlns:visugpx="https://www.visugpx.com/editgpx/">
            <visugpx:node>24</visugpx:node>
            </visugpx:TrkExtension>
        </extensions>
      </trkpt>
      <trkpt lat="46.05549" lon="3.68283">
        <ele>579</ele>
        <extensions>
          <visugpx:TrkExtension xmlns:visugpx="https://www.visugpx.com/editgpx/">
            <visugpx:node>25</visugpx:node>
            </visugpx:TrkExtension>
        </extensions>
      </trkpt>
      <trkpt lat="46.05275" lon="3.68189">
        <ele>582.1</ele>
        <extensions>
          <visugpx:TrkExtension xmlns:visugpx="https://www.visugpx.com/editgpx/">
            <visugpx:node>26</visugpx:node>
            </visugpx:TrkExtension>
        </extensions>
      </trkpt>
      <trkpt lat="46.05002" lon="3.68148">
        <ele>591.6</ele>
        <extensions>
          <visugpx:TrkExtension xmlns:visugpx="https://www.visugpx.com/editgpx/">
            <visugpx:node>27</visugpx:node>
            </visugpx:TrkExtension>
        </extensions>
      </trkpt>
      <trkpt lat="46.04812" lon="3.68244">
        <ele>602.7</ele>
        <extensions>
          <visugpx:TrkExtension xmlns:visugpx="https://www.visugpx.com/editgpx/">
            <visugpx:node>28</visugpx:node>
            </visugpx:TrkExtension>
        </extensions>
      </trkpt>
      <trkpt lat="46.04757" lon="3.68216">
        <ele>607.1</ele>
        <extensions>
          <visugpx:TrkExtension xmlns:visugpx="https://www.visugpx.com/editgpx/">
            <visugpx:node>29</visugpx:node>
            </visugpx:TrkExtension>
        </extensions>
      </trkpt>
      <trkpt lat="46.04684" lon="3.68137">
        <ele>618.4</ele>
        <extensions>
          <visugpx:TrkExtension xmlns:visugpx="https://www.visugpx.com/editgpx/">
            <visugpx:node>30</visugpx:node>
            </visugpx:TrkExtension>
        </extensions>
      </trkpt>
      <trkpt lat="46.0449" lon="3.68071">
        <ele>637.7</ele>
        <extensions>
          <visugpx:TrkExtension xmlns:visugpx="https://www.visugpx.com/editgpx/">
            <visugpx:node>31</visugpx:node>
            </visugpx:TrkExtension>
        </extensions>
      </trkpt>
      <trkpt lat="46.0418" lon="3.68277">
        <ele>688.3</ele>
        <extensions>
          <visugpx:TrkExtension xmlns:visugpx="https://www.visugpx.com/editgpx/">
            <visugpx:node>32</visugpx:node>
            </visugpx:TrkExtension>
        </extensions>
      </trkpt>
      <trkpt lat="46.03984" lon="3.68411">
        <ele>721.4</ele>
        <extensions>
          <visugpx:TrkExtension xmlns:visugpx="https://www.visugpx.com/editgpx/">
            <visugpx:node>33</visugpx:node>
            </visugpx:TrkExtension>
        </extensions>
      </trkpt>
      <trkpt lat="46.03944" lon="3.68553">
        <ele>740.6</ele>
        <extensions>
          <visugpx:TrkExtension xmlns:visugpx="https://www.visugpx.com/editgpx/">
            <visugpx:node>34</visugpx:node>
            </visugpx:TrkExtension>
        </extensions>
      </trkpt>
      <trkpt lat="46.03875" lon="3.68571">
        <ele>741.7</ele>
        <extensions>
          <visugpx:TrkExtension xmlns:visugpx="https://www.visugpx.com/editgpx/">
            <visugpx:node>35</visugpx:node>
            </visugpx:TrkExtension>
        </extensions>
      </trkpt>
      <trkpt lat="46.03809" lon="3.68708">
        <ele>749.2</ele>
        <extensions>
          <visugpx:TrkExtension xmlns:visugpx="https://www.visugpx.com/editgpx/">
            <visugpx:node>36</visugpx:node>
            </visugpx:TrkExtension>
        </extensions>
      </trkpt>
      <trkpt lat="46.03776" lon="3.68665">
        <ele>753.2</ele>
        <extensions>
          <visugpx:TrkExtension xmlns:visugpx="https://www.visugpx.com/editgpx/">
            <visugpx:node>37</visugpx:node>
            </visugpx:TrkExtension>
        </extensions>
      </trkpt>
      <trkpt lat="46.03582" lon="3.68714">
        <ele>760.5</ele>
        <extensions>
          <visugpx:TrkExtension xmlns:visugpx="https://www.visugpx.com/editgpx/">
            <visugpx:node>38</visugpx:node>
            </visugpx:TrkExtension>
        </extensions>
      </trkpt>
      <trkpt lat="46.03468" lon="3.68593">
        <ele>783.7</ele>
        <extensions>
          <visugpx:TrkExtension xmlns:visugpx="https://www.visugpx.com/editgpx/">
            <visugpx:node>39</visugpx:node>
            </visugpx:TrkExtension>
        </extensions>
      </trkpt>
      <trkpt lat="46.0338" lon="3.68584">
        <ele>796.3</ele>
        <extensions>
          <visugpx:TrkExtension xmlns:visugpx="https://www.visugpx.com/editgpx/">
            <visugpx:node>40</visugpx:node>
            </visugpx:TrkExtension>
        </extensions>
      </trkpt>
      <trkpt lat="46.0342" lon="3.6876">
        <ele>786.3</ele>
        <extensions>
          <visugpx:TrkExtension xmlns:visugpx="https://www.visugpx.com/editgpx/">
            <visugpx:node>41</visugpx:node>
            </visugpx:TrkExtension>
        </extensions>
      </trkpt>
      <trkpt lat="46.03403" lon="3.68805">
        <ele>786</ele>
        <extensions>
          <visugpx:TrkExtension xmlns:visugpx="https://www.visugpx.com/editgpx/">
            <visugpx:node>42</visugpx:node>
            </visugpx:TrkExtension>
        </extensions>
      </trkpt>
      <trkpt lat="46.03413" lon="3.68866">
        <ele>778</ele>
        <extensions>
          <visugpx:TrkExtension xmlns:visugpx="https://www.visugpx.com/editgpx/">
            <visugpx:node>43</visugpx:node>
            </visugpx:TrkExtension>
        </extensions>
      </trkpt>
      <trkpt lat="46.03401" lon="3.68957">
        <ele>779.2</ele>
        <extensions>
          <visugpx:TrkExtension xmlns:visugpx="https://www.visugpx.com/editgpx/">
            <visugpx:node>44</visugpx:node>
            </visugpx:TrkExtension>
        </extensions>
      </trkpt>
      <trkpt lat="46.03472" lon="3.69288">
        <ele>777.3</ele>
        <extensions>
          <visugpx:TrkExtension xmlns:visugpx="https://www.visugpx.com/editgpx/">
            <visugpx:node>45</visugpx:node>
            </visugpx:TrkExtension>
        </extensions>
      </trkpt>
      <trkpt lat="46.03557" lon="3.6947">
        <ele>765.2</ele>
        <extensions>
          <visugpx:TrkExtension xmlns:visugpx="https://www.visugpx.com/editgpx/">
            <visugpx:node>46</visugpx:node>
            </visugpx:TrkExtension>
        </extensions>
      </trkpt>
      <trkpt lat="46.0358" lon="3.69564">
        <ele>754.5</ele>
        <extensions>
          <visugpx:TrkExtension xmlns:visugpx="https://www.visugpx.com/editgpx/">
            <visugpx:node>47</visugpx:node>
            </visugpx:TrkExtension>
        </extensions>
      </trkpt>
      <trkpt lat="46.03594" lon="3.69615">
        <ele>751.5</ele>
        <extensions>
          <visugpx:TrkExtension xmlns:visugpx="https://www.visugpx.com/editgpx/">
            <visugpx:node>48</visugpx:node>
            </visugpx:TrkExtension>
        </extensions>
      </trkpt>
      <trkpt lat="46.03552" lon="3.698">
        <ele>740.6</ele>
        <extensions>
          <visugpx:TrkExtension xmlns:visugpx="https://www.visugpx.com/editgpx/">
            <visugpx:node>49</visugpx:node>
            </visugpx:TrkExtension>
        </extensions>
      </trkpt>
      <trkpt lat="46.03576" lon="3.69928">
        <ele>733.2</ele>
        <extensions>
          <visugpx:TrkExtension xmlns:visugpx="https://www.visugpx.com/editgpx/">
            <visugpx:node>50</visugpx:node>
            </visugpx:TrkExtension>
        </extensions>
      </trkpt>
      <trkpt lat="46.03548" lon="3.70083">
        <ele>719.1</ele>
        <extensions>
          <visugpx:TrkExtension xmlns:visugpx="https://www.visugpx.com/editgpx/">
            <visugpx:node>51</visugpx:node>
            </visugpx:TrkExtension>
        </extensions>
      </trkpt>
      <trkpt lat="46.03477" lon="3.70158">
        <ele>703.9</ele>
        <extensions>
          <visugpx:TrkExtension xmlns:visugpx="https://www.visugpx.com/editgpx/">
            <visugpx:node>52</visugpx:node>
            </visugpx:TrkExtension>
        </extensions>
      </trkpt>
      <trkpt lat="46.03498" lon="3.70341">
        <ele>688.4</ele>
        <extensions>
          <visugpx:TrkExtension xmlns:visugpx="https://www.visugpx.com/editgpx/">
            <visugpx:node>53</visugpx:node>
            </visugpx:TrkExtension>
        </extensions>
      </trkpt>
      <trkpt lat="46.03468" lon="3.70541">
        <ele>672.8</ele>
        <extensions>
          <visugpx:TrkExtension xmlns:visugpx="https://www.visugpx.com/editgpx/">
            <visugpx:node>54</visugpx:node>
            </visugpx:TrkExtension>
        </extensions>
      </trkpt>
      <trkpt lat="46.03405" lon="3.70377">
        <ele>670.6</ele>
        <extensions>
          <visugpx:TrkExtension xmlns:visugpx="https://www.visugpx.com/editgpx/">
            <visugpx:node>55</visugpx:node>
            </visugpx:TrkExtension>
        </extensions>
      </trkpt>
      <trkpt lat="46.03327" lon="3.70322">
        <ele>660.7</ele>
        <extensions>
          <visugpx:TrkExtension xmlns:visugpx="https://www.visugpx.com/editgpx/">
            <visugpx:node>56</visugpx:node>
            </visugpx:TrkExtension>
        </extensions>
      </trkpt>
      <trkpt lat="46.03323" lon="3.70262">
        <ele>664.4</ele>
        <extensions>
          <visugpx:TrkExtension xmlns:visugpx="https://www.visugpx.com/editgpx/">
            <visugpx:node>57</visugpx:node>
            </visugpx:TrkExtension>
        </extensions>
      </trkpt>
      <trkpt lat="46.03205" lon="3.70128">
        <ele>665.3</ele>
        <extensions>
          <visugpx:TrkExtension xmlns:visugpx="https://www.visugpx.com/editgpx/">
            <visugpx:node>58</visugpx:node>
            </visugpx:TrkExtension>
        </extensions>
      </trkpt>
      <trkpt lat="46.03182" lon="3.70195">
        <ele>668.9</ele>
        <extensions>
          <visugpx:TrkExtension xmlns:visugpx="https://www.visugpx.com/editgpx/">
            <visugpx:node>59</visugpx:node>
            </visugpx:TrkExtension>
        </extensions>
      </trkpt>
      <trkpt lat="46.03135" lon="3.70146">
        <ele>674.5</ele>
        <extensions>
          <visugpx:TrkExtension xmlns:visugpx="https://www.visugpx.com/editgpx/">
            <visugpx:node>60</visugpx:node>
            </visugpx:TrkExtension>
        </extensions>
      </trkpt>
      <trkpt lat="46.03045" lon="3.70198">
        <ele>680.5</ele>
        <extensions>
          <visugpx:TrkExtension xmlns:visugpx="https://www.visugpx.com/editgpx/">
            <visugpx:node>61</visugpx:node>
            </visugpx:TrkExtension>
        </extensions>
      </trkpt>
      <trkpt lat="46.02984" lon="3.70165">
        <ele>685</ele>
        <extensions>
          <visugpx:TrkExtension xmlns:visugpx="https://www.visugpx.com/editgpx/">
            <visugpx:node>62</visugpx:node>
            </visugpx:TrkExtension>
        </extensions>
      </trkpt>
      <trkpt lat="46.02912" lon="3.70216">
        <ele>687.5</ele>
        <extensions>
          <visugpx:TrkExtension xmlns:visugpx="https://www.visugpx.com/editgpx/">
            <visugpx:node>63</visugpx:node>
            </visugpx:TrkExtension>
        </extensions>
      </trkpt>
      <trkpt lat="46.02863" lon="3.70313">
        <ele>696.3</ele>
        <extensions>
          <visugpx:TrkExtension xmlns:visugpx="https://www.visugpx.com/editgpx/">
            <visugpx:node>64</visugpx:node>
            </visugpx:TrkExtension>
        </extensions>
      </trkpt>
      <trkpt lat="46.02781" lon="3.70313">
        <ele>713.1</ele>
        <extensions>
          <visugpx:TrkExtension xmlns:visugpx="https://www.visugpx.com/editgpx/">
            <visugpx:node>65</visugpx:node>
            </visugpx:TrkExtension>
        </extensions>
      </trkpt>
      <trkpt lat="46.02705" lon="3.70259">
        <ele>730.9</ele>
        <extensions>
          <visugpx:TrkExtension xmlns:visugpx="https://www.visugpx.com/editgpx/">
            <visugpx:node>66</visugpx:node>
            </visugpx:TrkExtension>
        </extensions>
      </trkpt>
      <trkpt lat="46.02636" lon="3.7028">
        <ele>744.4</ele>
        <extensions>
          <visugpx:TrkExtension xmlns:visugpx="https://www.visugpx.com/editgpx/">
            <visugpx:node>67</visugpx:node>
            </visugpx:TrkExtension>
        </extensions>
      </trkpt>
      <trkpt lat="46.02575" lon="3.70301">
        <ele>750.8</ele>
        <extensions>
          <visugpx:TrkExtension xmlns:visugpx="https://www.visugpx.com/editgpx/">
            <visugpx:node>68</visugpx:node>
            </visugpx:TrkExtension>
        </extensions>
      </trkpt>
      <trkpt lat="46.02417" lon="3.70271">
        <ele>773</ele>
        <extensions>
          <visugpx:TrkExtension xmlns:visugpx="https://www.visugpx.com/editgpx/">
            <visugpx:node>69</visugpx:node>
            </visugpx:TrkExtension>
        </extensions>
      </trkpt>
      <trkpt lat="46.02341" lon="3.70307">
        <ele>783</ele>
        <extensions>
          <visugpx:TrkExtension xmlns:visugpx="https://www.visugpx.com/editgpx/">
            <visugpx:node>70</visugpx:node>
            </visugpx:TrkExtension>
        </extensions>
      </trkpt>
      <trkpt lat="46.02278" lon="3.70295">
        <ele>794.1</ele>
        <extensions>
          <visugpx:TrkExtension xmlns:visugpx="https://www.visugpx.com/editgpx/">
            <visugpx:node>71</visugpx:node>
            </visugpx:TrkExtension>
        </extensions>
      </trkpt>
      <trkpt lat="46.0224" lon="3.70225">
        <ele>804</ele>
        <extensions>
          <visugpx:TrkExtension xmlns:visugpx="https://www.visugpx.com/editgpx/">
            <visugpx:node>72</visugpx:node>
            </visugpx:TrkExtension>
        </extensions>
      </trkpt>
      <trkpt lat="46.02181" lon="3.70095">
        <ele>817.9</ele>
        <extensions>
          <visugpx:TrkExtension xmlns:visugpx="https://www.visugpx.com/editgpx/">
            <visugpx:node>73</visugpx:node>
            </visugpx:TrkExtension>
        </extensions>
      </trkpt>
      <trkpt lat="46.02092" lon="3.69894">
        <ele>833.3</ele>
        <extensions>
          <visugpx:TrkExtension xmlns:visugpx="https://www.visugpx.com/editgpx/">
            <visugpx:node>74</visugpx:node>
            </visugpx:TrkExtension>
        </extensions>
      </trkpt>
      <trkpt lat="46.02016" lon="3.69992">
        <ele>842.5</ele>
        <extensions>
          <visugpx:TrkExtension xmlns:visugpx="https://www.visugpx.com/editgpx/">
            <visugpx:node>75</visugpx:node>
            </visugpx:TrkExtension>
        </extensions>
      </trkpt>
      <trkpt lat="46.01852" lon="3.70046">
        <ele>850.5</ele>
        <extensions>
          <visugpx:TrkExtension xmlns:visugpx="https://www.visugpx.com/editgpx/">
            <visugpx:node>76</visugpx:node>
            </visugpx:TrkExtension>
        </extensions>
      </trkpt>
      <trkpt lat="46.01797" lon="3.70064">
        <ele>851.5</ele>
        <extensions>
          <visugpx:TrkExtension xmlns:visugpx="https://www.visugpx.com/editgpx/">
            <visugpx:node>77</visugpx:node>
            </visugpx:TrkExtension>
        </extensions>
      </trkpt>
      <trkpt lat="46.01648" lon="3.70292">
        <ele>845.4</ele>
        <extensions>
          <visugpx:TrkExtension xmlns:visugpx="https://www.visugpx.com/editgpx/">
            <visugpx:node>78</visugpx:node>
            </visugpx:TrkExtension>
        </extensions>
      </trkpt>
      <trkpt lat="46.01648" lon="3.70341">
        <ele>846.6</ele>
        <extensions>
          <visugpx:TrkExtension xmlns:visugpx="https://www.visugpx.com/editgpx/">
            <visugpx:node>79</visugpx:node>
            </visugpx:TrkExtension>
        </extensions>
      </trkpt>
      <trkpt lat="46.01677" lon="3.70438">
        <ele>844.9</ele>
        <extensions>
          <visugpx:TrkExtension xmlns:visugpx="https://www.visugpx.com/editgpx/">
            <visugpx:node>80</visugpx:node>
            </visugpx:TrkExtension>
        </extensions>
      </trkpt>
      <trkpt lat="46.0165" lon="3.7062">
        <ele>844.4</ele>
        <extensions>
          <visugpx:TrkExtension xmlns:visugpx="https://www.visugpx.com/editgpx/">
            <visugpx:node>81</visugpx:node>
            </visugpx:TrkExtension>
        </extensions>
      </trkpt>
      <trkpt lat="46.01561" lon="3.70738">
        <ele>847.5</ele>
        <extensions>
          <visugpx:TrkExtension xmlns:visugpx="https://www.visugpx.com/editgpx/">
            <visugpx:node>82</visugpx:node>
            </visugpx:TrkExtension>
        </extensions>
      </trkpt>
      <trkpt lat="46.01401" lon="3.70872">
        <ele>853.5</ele>
        <extensions>
          <visugpx:TrkExtension xmlns:visugpx="https://www.visugpx.com/editgpx/">
            <visugpx:node>83</visugpx:node>
            </visugpx:TrkExtension>
        </extensions>
      </trkpt>
      <trkpt lat="46.01275" lon="3.70917">
        <ele>853.8</ele>
        <extensions>
          <visugpx:TrkExtension xmlns:visugpx="https://www.visugpx.com/editgpx/">
            <visugpx:node>84</visugpx:node>
            </visugpx:TrkExtension>
        </extensions>
      </trkpt>
      <trkpt lat="46.01121" lon="3.71057">
        <ele>830.1</ele>
        <extensions>
          <visugpx:TrkExtension xmlns:visugpx="https://www.visugpx.com/editgpx/">
            <visugpx:node>85</visugpx:node>
            </visugpx:TrkExtension>
        </extensions>
      </trkpt>
      <trkpt lat="46.01047" lon="3.71105">
        <ele>819.3</ele>
        <extensions>
          <visugpx:TrkExtension xmlns:visugpx="https://www.visugpx.com/editgpx/">
            <visugpx:node>86</visugpx:node>
            </visugpx:TrkExtension>
        </extensions>
      </trkpt>
      <trkpt lat="46.0098" lon="3.71175">
        <ele>809.9</ele>
        <extensions>
          <visugpx:TrkExtension xmlns:visugpx="https://www.visugpx.com/editgpx/">
            <visugpx:node>87</visugpx:node>
            </visugpx:TrkExtension>
        </extensions>
      </trkpt>
      <trkpt lat="46.00963" lon="3.71111">
        <ele>812.3</ele>
        <extensions>
          <visugpx:TrkExtension xmlns:visugpx="https://www.visugpx.com/editgpx/">
            <visugpx:node>88</visugpx:node>
            </visugpx:TrkExtension>
        </extensions>
      </trkpt>
      <trkpt lat="46.00937" lon="3.71075">
        <ele>808.9</ele>
        <extensions>
          <visugpx:TrkExtension xmlns:visugpx="https://www.visugpx.com/editgpx/">
            <visugpx:node>89</visugpx:node>
            </visugpx:TrkExtension>
        </extensions>
      </trkpt>
      <trkpt lat="46.00929" lon="3.71002">
        <ele>811.8</ele>
        <extensions>
          <visugpx:TrkExtension xmlns:visugpx="https://www.visugpx.com/editgpx/">
            <visugpx:node>90</visugpx:node>
            </visugpx:TrkExtension>
        </extensions>
      </trkpt>
      <trkpt lat="46.00885" lon="3.71014">
        <ele>808.9</ele>
        <extensions>
          <visugpx:TrkExtension xmlns:visugpx="https://www.visugpx.com/editgpx/">
            <visugpx:node>91</visugpx:node>
            </visugpx:TrkExtension>
        </extensions>
      </trkpt>
      <trkpt lat="46.00762" lon="3.71078">
        <ele>806.5</ele>
        <extensions>
          <visugpx:TrkExtension xmlns:visugpx="https://www.visugpx.com/editgpx/">
            <visugpx:node>92</visugpx:node>
            </visugpx:TrkExtension>
        </extensions>
      </trkpt>
      <trkpt lat="46.00716" lon="3.71154">
        <ele>799.3</ele>
        <extensions>
          <visugpx:TrkExtension xmlns:visugpx="https://www.visugpx.com/editgpx/">
            <visugpx:node>93</visugpx:node>
            </visugpx:TrkExtension>
        </extensions>
      </trkpt>
      <trkpt lat="46.00651" lon="3.71145">
        <ele>800.9</ele>
        <extensions>
          <visugpx:TrkExtension xmlns:visugpx="https://www.visugpx.com/editgpx/">
            <visugpx:node>94</visugpx:node>
            </visugpx:TrkExtension>
        </extensions>
      </trkpt>
      <trkpt lat="46.00512" lon="3.71099">
        <ele>800.9</ele>
        <extensions>
          <visugpx:TrkExtension xmlns:visugpx="https://www.visugpx.com/editgpx/">
            <visugpx:node>95</visugpx:node>
            </visugpx:TrkExtension>
        </extensions>
      </trkpt>
      <trkpt lat="46.00419" lon="3.7126">
        <ele>787.7</ele>
        <extensions>
          <visugpx:TrkExtension xmlns:visugpx="https://www.visugpx.com/editgpx/">
            <visugpx:node>96</visugpx:node>
            </visugpx:TrkExtension>
        </extensions>
      </trkpt>
      <trkpt lat="46.00273" lon="3.71348">
        <ele>784.2</ele>
        <extensions>
          <visugpx:TrkExtension xmlns:visugpx="https://www.visugpx.com/editgpx/">
            <visugpx:node>97</visugpx:node>
            </visugpx:TrkExtension>
        </extensions>
      </trkpt>
      <trkpt lat="46.00219" lon="3.71466">
        <ele>781.1</ele>
        <extensions>
          <visugpx:TrkExtension xmlns:visugpx="https://www.visugpx.com/editgpx/">
            <visugpx:node>98</visugpx:node>
            </visugpx:TrkExtension>
        </extensions>
      </trkpt>
      <trkpt lat="46.00092" lon="3.71475">
        <ele>784.7</ele>
        <extensions>
          <visugpx:TrkExtension xmlns:visugpx="https://www.visugpx.com/editgpx/">
            <visugpx:node>99</visugpx:node>
            </visugpx:TrkExtension>
        </extensions>
      </trkpt>
      <trkpt lat="46.00075" lon="3.71506">
        <ele>785.3</ele>
        <extensions>
          <visugpx:TrkExtension xmlns:visugpx="https://www.visugpx.com/editgpx/">
            <visugpx:node>100</visugpx:node>
            </visugpx:TrkExtension>
        </extensions>
      </trkpt>
      <trkpt lat="46.00107" lon="3.71579">
        <ele>779.5</ele>
        <extensions>
          <visugpx:TrkExtension xmlns:visugpx="https://www.visugpx.com/editgpx/">
            <visugpx:node>101</visugpx:node>
            </visugpx:TrkExtension>
        </extensions>
      </trkpt>
      <trkpt lat="46.00096" lon="3.71682">
        <ele>766.1</ele>
        <extensions>
          <visugpx:TrkExtension xmlns:visugpx="https://www.visugpx.com/editgpx/">
            <visugpx:node>102</visugpx:node>
            </visugpx:TrkExtension>
        </extensions>
      </trkpt>
      <trkpt lat="45.99953" lon="3.71803">
        <ele>761.8</ele>
        <extensions>
          <visugpx:TrkExtension xmlns:visugpx="https://www.visugpx.com/editgpx/">
            <visugpx:node>103</visugpx:node>
            </visugpx:TrkExtension>
        </extensions>
      </trkpt>
      <trkpt lat="45.99938" lon="3.71922">
        <ele>751.8</ele>
        <extensions>
          <visugpx:TrkExtension xmlns:visugpx="https://www.visugpx.com/editgpx/">
            <visugpx:node>104</visugpx:node>
            </visugpx:TrkExtension>
        </extensions>
      </trkpt>
      <trkpt lat="45.99835" lon="3.72092">
        <ele>737.9</ele>
        <extensions>
          <visugpx:TrkExtension xmlns:visugpx="https://www.visugpx.com/editgpx/">
            <visugpx:node>105</visugpx:node>
            </visugpx:TrkExtension>
        </extensions>
      </trkpt>
      <trkpt lat="45.99772" lon="3.72131">
        <ele>735.8</ele>
        <extensions>
          <visugpx:TrkExtension xmlns:visugpx="https://www.visugpx.com/editgpx/">
            <visugpx:node>106</visugpx:node>
            </visugpx:TrkExtension>
        </extensions>
      </trkpt>
      <trkpt lat="45.99685" lon="3.72213">
        <ele>732.4</ele>
        <extensions>
          <visugpx:TrkExtension xmlns:visugpx="https://www.visugpx.com/editgpx/">
            <visugpx:node>107</visugpx:node>
            </visugpx:TrkExtension>
        </extensions>
      </trkpt>
      <trkpt lat="45.99683" lon="3.72292">
        <ele>725</ele>
        <extensions>
          <visugpx:TrkExtension xmlns:visugpx="https://www.visugpx.com/editgpx/">
            <visugpx:node>108</visugpx:node>
            </visugpx:TrkExtension>
        </extensions>
      </trkpt>
      <trkpt lat="45.99683" lon="3.72474">
        <ele>712.2</ele>
        <extensions>
          <visugpx:TrkExtension xmlns:visugpx="https://www.visugpx.com/editgpx/">
            <visugpx:node>109</visugpx:node>
            </visugpx:TrkExtension>
        </extensions>
      </trkpt>
      <trkpt lat="45.99685" lon="3.72604">
        <ele>707.4</ele>
        <extensions>
          <visugpx:TrkExtension xmlns:visugpx="https://www.visugpx.com/editgpx/">
            <visugpx:node>110</visugpx:node>
            </visugpx:TrkExtension>
        </extensions>
      </trkpt>
      <trkpt lat="45.99654" lon="3.72865">
        <ele>711.4</ele>
        <extensions>
          <visugpx:TrkExtension xmlns:visugpx="https://www.visugpx.com/editgpx/">
            <visugpx:node>111</visugpx:node>
            </visugpx:TrkExtension>
        </extensions>
      </trkpt>
      <trkpt lat="45.99622" lon="3.72856">
        <ele>716.1</ele>
        <extensions>
          <visugpx:TrkExtension xmlns:visugpx="https://www.visugpx.com/editgpx/">
            <visugpx:node>112</visugpx:node>
            </visugpx:TrkExtension>
        </extensions>
      </trkpt>
      <trkpt lat="45.99574" lon="3.72826">
        <ele>727</ele>
        <extensions>
          <visugpx:TrkExtension xmlns:visugpx="https://www.visugpx.com/editgpx/">
            <visugpx:node>113</visugpx:node>
            </visugpx:TrkExtension>
        </extensions>
      </trkpt>
      <trkpt lat="45.99472" lon="3.72865">
        <ele>744.7</ele>
        <extensions>
          <visugpx:TrkExtension xmlns:visugpx="https://www.visugpx.com/editgpx/">
            <visugpx:node>114</visugpx:node>
            </visugpx:TrkExtension>
        </extensions>
      </trkpt>
      <trkpt lat="45.99361" lon="3.72829">
        <ele>764.7</ele>
        <extensions>
          <visugpx:TrkExtension xmlns:visugpx="https://www.visugpx.com/editgpx/">
            <visugpx:node>115</visugpx:node>
            </visugpx:TrkExtension>
        </extensions>
      </trkpt>
      <trkpt lat="45.9935" lon="3.72653">
        <ele>785.4</ele>
        <extensions>
          <visugpx:TrkExtension xmlns:visugpx="https://www.visugpx.com/editgpx/">
            <visugpx:node>116</visugpx:node>
            </visugpx:TrkExtension>
        </extensions>
      </trkpt>
      <trkpt lat="45.99314" lon="3.7251">
        <ele>810.1</ele>
        <extensions>
          <visugpx:TrkExtension xmlns:visugpx="https://www.visugpx.com/editgpx/">
            <visugpx:node>117</visugpx:node>
            </visugpx:TrkExtension>
        </extensions>
      </trkpt>
      <trkpt lat="45.99333" lon="3.72243">
        <ele>834.5</ele>
        <extensions>
          <visugpx:TrkExtension xmlns:visugpx="https://www.visugpx.com/editgpx/">
            <visugpx:node>118</visugpx:node>
            </visugpx:TrkExtension>
        </extensions>
      </trkpt>
      <trkpt lat="45.99302" lon="3.72183">
        <ele>841.1</ele>
        <extensions>
          <visugpx:TrkExtension xmlns:visugpx="https://www.visugpx.com/editgpx/">
            <visugpx:node>119</visugpx:node>
            </visugpx:TrkExtension>
        </extensions>
      </trkpt>
      <trkpt lat="45.99373" lon="3.71727">
        <ele>858.9</ele>
        <extensions>
          <visugpx:TrkExtension xmlns:visugpx="https://www.visugpx.com/editgpx/">
            <visugpx:node>120</visugpx:node>
            </visugpx:TrkExtension>
        </extensions>
      </trkpt>
      <trkpt lat="45.99405" lon="3.71679">
        <ele>859.4</ele>
        <extensions>
          <visugpx:TrkExtension xmlns:visugpx="https://www.visugpx.com/editgpx/">
            <visugpx:node>121</visugpx:node>
            </visugpx:TrkExtension>
        </extensions>
      </trkpt>
      <trkpt lat="45.99571" lon="3.71661">
        <ele>876.3</ele>
        <extensions>
          <visugpx:TrkExtension xmlns:visugpx="https://www.visugpx.com/editgpx/">
            <visugpx:node>122</visugpx:node>
            </visugpx:TrkExtension>
        </extensions>
      </trkpt>
      <trkpt lat="45.99694" lon="3.71545">
        <ele>887</ele>
        <extensions>
          <visugpx:TrkExtension xmlns:visugpx="https://www.visugpx.com/editgpx/">
            <visugpx:node>123</visugpx:node>
            </visugpx:TrkExtension>
        </extensions>
      </trkpt>
      <trkpt lat="45.99717" lon="3.71427">
        <ele>898</ele>
        <extensions>
          <visugpx:TrkExtension xmlns:visugpx="https://www.visugpx.com/editgpx/">
            <visugpx:node>124</visugpx:node>
            </visugpx:TrkExtension>
        </extensions>
      </trkpt>
      <trkpt lat="45.99679" lon="3.71278">
        <ele>908.8</ele>
        <extensions>
          <visugpx:TrkExtension xmlns:visugpx="https://www.visugpx.com/editgpx/">
            <visugpx:node>125</visugpx:node>
            </visugpx:TrkExtension>
        </extensions>
      </trkpt>
      <trkpt lat="45.99612" lon="3.71394">
        <ele>919.8</ele>
        <extensions>
          <visugpx:TrkExtension xmlns:visugpx="https://www.visugpx.com/editgpx/">
            <visugpx:node>126</visugpx:node>
            </visugpx:TrkExtension>
        </extensions>
      </trkpt>
      <trkpt lat="45.99567" lon="3.71409">
        <ele>924.2</ele>
        <extensions>
          <visugpx:TrkExtension xmlns:visugpx="https://www.visugpx.com/editgpx/">
            <visugpx:node>127</visugpx:node>
            </visugpx:TrkExtension>
        </extensions>
      </trkpt>
      <trkpt lat="45.99521" lon="3.71363">
        <ele>929.5</ele>
        <extensions>
          <visugpx:TrkExtension xmlns:visugpx="https://www.visugpx.com/editgpx/">
            <visugpx:node>128</visugpx:node>
            </visugpx:TrkExtension>
        </extensions>
      </trkpt>
      <trkpt lat="45.99515" lon="3.71281">
        <ele>941.2</ele>
        <extensions>
          <visugpx:TrkExtension xmlns:visugpx="https://www.visugpx.com/editgpx/">
            <visugpx:node>129</visugpx:node>
            </visugpx:TrkExtension>
        </extensions>
      </trkpt>
      <trkpt lat="45.99525" lon="3.71199">
        <ele>951.7</ele>
        <extensions>
          <visugpx:TrkExtension xmlns:visugpx="https://www.visugpx.com/editgpx/">
            <visugpx:node>130</visugpx:node>
            </visugpx:TrkExtension>
        </extensions>
      </trkpt>
      <trkpt lat="45.99502" lon="3.71081">
        <ele>964.9</ele>
        <extensions>
          <visugpx:TrkExtension xmlns:visugpx="https://www.visugpx.com/editgpx/">
            <visugpx:node>131</visugpx:node>
            </visugpx:TrkExtension>
        </extensions>
      </trkpt>
      <trkpt lat="45.9946" lon="3.71032">
        <ele>964.1</ele>
        <extensions>
          <visugpx:TrkExtension xmlns:visugpx="https://www.visugpx.com/editgpx/">
            <visugpx:node>132</visugpx:node>
            </visugpx:TrkExtension>
        </extensions>
      </trkpt>
      <trkpt lat="45.99605" lon="3.70951">
        <ele>962.4</ele>
        <extensions>
          <visugpx:TrkExtension xmlns:visugpx="https://www.visugpx.com/editgpx/">
            <visugpx:node>133</visugpx:node>
            </visugpx:TrkExtension>
        </extensions>
      </trkpt>
      <trkpt lat="45.99727" lon="3.70908">
        <ele>957.3</ele>
        <extensions>
          <visugpx:TrkExtension xmlns:visugpx="https://www.visugpx.com/editgpx/">
            <visugpx:node>134</visugpx:node>
            </visugpx:TrkExtension>
        </extensions>
      </trkpt>
      <trkpt lat="45.99784" lon="3.70905">
        <ele>955.5</ele>
        <extensions>
          <visugpx:TrkExtension xmlns:visugpx="https://www.visugpx.com/editgpx/">
            <visugpx:node>135</visugpx:node>
            </visugpx:TrkExtension>
        </extensions>
      </trkpt>
      <trkpt lat="46.00012" lon="3.70932">
        <ele>940</ele>
        <extensions>
          <visugpx:TrkExtension xmlns:visugpx="https://www.visugpx.com/editgpx/">
            <visugpx:node>136</visugpx:node>
            </visugpx:TrkExtension>
        </extensions>
      </trkpt>
      <trkpt lat="46.00132" lon="3.7082">
        <ele>921</ele>
        <extensions>
          <visugpx:TrkExtension xmlns:visugpx="https://www.visugpx.com/editgpx/">
            <visugpx:node>137</visugpx:node>
            </visugpx:TrkExtension>
        </extensions>
      </trkpt>
      <trkpt lat="46.00269" lon="3.70823">
        <ele>909.1</ele>
        <extensions>
          <visugpx:TrkExtension xmlns:visugpx="https://www.visugpx.com/editgpx/">
            <visugpx:node>138</visugpx:node>
            </visugpx:TrkExtension>
        </extensions>
      </trkpt>
      <trkpt lat="46.00349" lon="3.70729">
        <ele>894.4</ele>
        <extensions>
          <visugpx:TrkExtension xmlns:visugpx="https://www.visugpx.com/editgpx/">
            <visugpx:node>139</visugpx:node>
            </visugpx:TrkExtension>
        </extensions>
      </trkpt>
      <trkpt lat="46.0056" lon="3.70683">
        <ele>886.4</ele>
        <extensions>
          <visugpx:TrkExtension xmlns:visugpx="https://www.visugpx.com/editgpx/">
            <visugpx:node>140</visugpx:node>
            </visugpx:TrkExtension>
        </extensions>
      </trkpt>
      <trkpt lat="46.00771" lon="3.70517">
        <ele>892.7</ele>
        <extensions>
          <visugpx:TrkExtension xmlns:visugpx="https://www.visugpx.com/editgpx/">
            <visugpx:node>141</visugpx:node>
            </visugpx:TrkExtension>
        </extensions>
      </trkpt>
      <trkpt lat="46.00885" lon="3.70453">
        <ele>900.7</ele>
        <extensions>
          <visugpx:TrkExtension xmlns:visugpx="https://www.visugpx.com/editgpx/">
            <visugpx:node>142</visugpx:node>
            </visugpx:TrkExtension>
        </extensions>
      </trkpt>
      <trkpt lat="46.00956" lon="3.70419">
        <ele>900.9</ele>
        <extensions>
          <visugpx:TrkExtension xmlns:visugpx="https://www.visugpx.com/editgpx/">
            <visugpx:node>143</visugpx:node>
            </visugpx:TrkExtension>
        </extensions>
      </trkpt>
      <trkpt lat="46.01104" lon="3.70395">
        <ele>886.7</ele>
        <extensions>
          <visugpx:TrkExtension xmlns:visugpx="https://www.visugpx.com/editgpx/">
            <visugpx:node>144</visugpx:node>
            </visugpx:TrkExtension>
        </extensions>
      </trkpt>
      <trkpt lat="46.01127" lon="3.70316">
        <ele>877.2</ele>
        <extensions>
          <visugpx:TrkExtension xmlns:visugpx="https://www.visugpx.com/editgpx/">
            <visugpx:node>145</visugpx:node>
            </visugpx:TrkExtension>
        </extensions>
      </trkpt>
      <trkpt lat="46.01296" lon="3.70246">
        <ele>851.1</ele>
        <extensions>
          <visugpx:TrkExtension xmlns:visugpx="https://www.visugpx.com/editgpx/">
            <visugpx:node>146</visugpx:node>
            </visugpx:TrkExtension>
        </extensions>
      </trkpt>
      <trkpt lat="46.01334" lon="3.70158">
        <ele>833.8</ele>
        <extensions>
          <visugpx:TrkExtension xmlns:visugpx="https://www.visugpx.com/editgpx/">
            <visugpx:node>147</visugpx:node>
            </visugpx:TrkExtension>
        </extensions>
      </trkpt>
      <trkpt lat="46.01401" lon="3.69876">
        <ele>804</ele>
        <extensions>
          <visugpx:TrkExtension xmlns:visugpx="https://www.visugpx.com/editgpx/">
            <visugpx:node>148</visugpx:node>
            </visugpx:TrkExtension>
        </extensions>
      </trkpt>
      <trkpt lat="46.0134" lon="3.69658">
        <ele>789.7</ele>
        <extensions>
          <visugpx:TrkExtension xmlns:visugpx="https://www.visugpx.com/editgpx/">
            <visugpx:node>149</visugpx:node>
            </visugpx:TrkExtension>
        </extensions>
      </trkpt>
      <trkpt lat="46.01418" lon="3.69315">
        <ele>760.4</ele>
        <extensions>
          <visugpx:TrkExtension xmlns:visugpx="https://www.visugpx.com/editgpx/">
            <visugpx:node>150</visugpx:node>
            </visugpx:TrkExtension>
        </extensions>
      </trkpt>
      <trkpt lat="46.01393" lon="3.69169">
        <ele>742.3</ele>
        <extensions>
          <visugpx:TrkExtension xmlns:visugpx="https://www.visugpx.com/editgpx/">
            <visugpx:node>151</visugpx:node>
            </visugpx:TrkExtension>
        </extensions>
      </trkpt>
      <trkpt lat="46.01546" lon="3.69084">
        <ele>733.8</ele>
        <extensions>
          <visugpx:TrkExtension xmlns:visugpx="https://www.visugpx.com/editgpx/">
            <visugpx:node>152</visugpx:node>
            </visugpx:TrkExtension>
        </extensions>
      </trkpt>
      <trkpt lat="46.01593" lon="3.68939">
        <ele>726.7</ele>
        <extensions>
          <visugpx:TrkExtension xmlns:visugpx="https://www.visugpx.com/editgpx/">
            <visugpx:node>153</visugpx:node>
            </visugpx:TrkExtension>
        </extensions>
      </trkpt>
      <trkpt lat="46.01502" lon="3.68869">
        <ele>721.6</ele>
        <extensions>
          <visugpx:TrkExtension xmlns:visugpx="https://www.visugpx.com/editgpx/">
            <visugpx:node>154</visugpx:node>
            </visugpx:TrkExtension>
        </extensions>
      </trkpt>
      <trkpt lat="46.0142" lon="3.68899">
        <ele>713.6</ele>
        <extensions>
          <visugpx:TrkExtension xmlns:visugpx="https://www.visugpx.com/editgpx/">
            <visugpx:node>155</visugpx:node>
            </visugpx:TrkExtension>
        </extensions>
      </trkpt>
      <trkpt lat="46.01405" lon="3.68848">
        <ele>713.2</ele>
        <extensions>
          <visugpx:TrkExtension xmlns:visugpx="https://www.visugpx.com/editgpx/">
            <visugpx:node>156</visugpx:node>
            </visugpx:TrkExtension>
        </extensions>
      </trkpt>
      <trkpt lat="46.01414" lon="3.6875">
        <ele>717.1</ele>
        <extensions>
          <visugpx:TrkExtension xmlns:visugpx="https://www.visugpx.com/editgpx/">
            <visugpx:node>157</visugpx:node>
            </visugpx:TrkExtension>
        </extensions>
      </trkpt>
      <trkpt lat="46.01384" lon="3.68647">
        <ele>721.8</ele>
        <extensions>
          <visugpx:TrkExtension xmlns:visugpx="https://www.visugpx.com/editgpx/">
            <visugpx:node>158</visugpx:node>
            </visugpx:TrkExtension>
        </extensions>
      </trkpt>
      <trkpt lat="46.01374" lon="3.68626">
        <ele>722.2</ele>
        <extensions>
          <visugpx:TrkExtension xmlns:visugpx="https://www.visugpx.com/editgpx/">
            <visugpx:node>159</visugpx:node>
            </visugpx:TrkExtension>
        </extensions>
      </trkpt>
      <trkpt lat="46.0149" lon="3.68632">
        <ele>737.6</ele>
        <extensions>
          <visugpx:TrkExtension xmlns:visugpx="https://www.visugpx.com/editgpx/">
            <visugpx:node>160</visugpx:node>
            </visugpx:TrkExtension>
        </extensions>
      </trkpt>
      <trkpt lat="46.01643" lon="3.68553">
        <ele>755.5</ele>
        <extensions>
          <visugpx:TrkExtension xmlns:visugpx="https://www.visugpx.com/editgpx/">
            <visugpx:node>161</visugpx:node>
            </visugpx:TrkExtension>
        </extensions>
      </trkpt>
      <trkpt lat="46.01723" lon="3.6869">
        <ele>766.3</ele>
        <extensions>
          <visugpx:TrkExtension xmlns:visugpx="https://www.visugpx.com/editgpx/">
            <visugpx:node>162</visugpx:node>
            </visugpx:TrkExtension>
        </extensions>
      </trkpt>
      <trkpt lat="46.01814" lon="3.68738">
        <ele>766.2</ele>
        <extensions>
          <visugpx:TrkExtension xmlns:visugpx="https://www.visugpx.com/editgpx/">
            <visugpx:node>163</visugpx:node>
            </visugpx:TrkExtension>
        </extensions>
      </trkpt>
      <trkpt lat="46.01892" lon="3.68732">
        <ele>762.2</ele>
        <extensions>
          <visugpx:TrkExtension xmlns:visugpx="https://www.visugpx.com/editgpx/">
            <visugpx:node>164</visugpx:node>
            </visugpx:TrkExtension>
        </extensions>
      </trkpt>
      <trkpt lat="46.01966" lon="3.6879">
        <ele>766.4</ele>
        <extensions>
          <visugpx:TrkExtension xmlns:visugpx="https://www.visugpx.com/editgpx/">
            <visugpx:node>165</visugpx:node>
            </visugpx:TrkExtension>
        </extensions>
      </trkpt>
      <trkpt lat="46.02073" lon="3.69039">
        <ele>776.8</ele>
        <extensions>
          <visugpx:TrkExtension xmlns:visugpx="https://www.visugpx.com/editgpx/">
            <visugpx:node>166</visugpx:node>
            </visugpx:TrkExtension>
        </extensions>
      </trkpt>
      <trkpt lat="46.02069" lon="3.69099">
        <ele>775.3</ele>
        <extensions>
          <visugpx:TrkExtension xmlns:visugpx="https://www.visugpx.com/editgpx/">
            <visugpx:node>167</visugpx:node>
            </visugpx:TrkExtension>
        </extensions>
      </trkpt>
      <trkpt lat="46.02101" lon="3.6916">
        <ele>775</ele>
        <extensions>
          <visugpx:TrkExtension xmlns:visugpx="https://www.visugpx.com/editgpx/">
            <visugpx:node>168</visugpx:node>
            </visugpx:TrkExtension>
        </extensions>
      </trkpt>
      <trkpt lat="46.02259" lon="3.6916">
        <ele>777.2</ele>
        <extensions>
          <visugpx:TrkExtension xmlns:visugpx="https://www.visugpx.com/editgpx/">
            <visugpx:node>169</visugpx:node>
            </visugpx:TrkExtension>
        </extensions>
      </trkpt>
      <trkpt lat="46.02328" lon="3.69172">
        <ele>782.4</ele>
        <extensions>
          <visugpx:TrkExtension xmlns:visugpx="https://www.visugpx.com/editgpx/">
            <visugpx:node>170</visugpx:node>
            </visugpx:TrkExtension>
        </extensions>
      </trkpt>
      <trkpt lat="46.02406" lon="3.69042">
        <ele>780.2</ele>
        <extensions>
          <visugpx:TrkExtension xmlns:visugpx="https://www.visugpx.com/editgpx/">
            <visugpx:node>171</visugpx:node>
            </visugpx:TrkExtension>
        </extensions>
      </trkpt>
      <trkpt lat="46.02339" lon="3.68699">
        <ele>728.6</ele>
        <extensions>
          <visugpx:TrkExtension xmlns:visugpx="https://www.visugpx.com/editgpx/">
            <visugpx:node>172</visugpx:node>
            </visugpx:TrkExtension>
        </extensions>
      </trkpt>
      <trkpt lat="46.02379" lon="3.68496">
        <ele>712.8</ele>
        <extensions>
          <visugpx:TrkExtension xmlns:visugpx="https://www.visugpx.com/editgpx/">
            <visugpx:node>173</visugpx:node>
            </visugpx:TrkExtension>
        </extensions>
      </trkpt>
      <trkpt lat="46.02432" lon="3.68441">
        <ele>711.3</ele>
        <extensions>
          <visugpx:TrkExtension xmlns:visugpx="https://www.visugpx.com/editgpx/">
            <visugpx:node>174</visugpx:node>
            </visugpx:TrkExtension>
        </extensions>
      </trkpt>
      <trkpt lat="46.0245" lon="3.68289">
        <ele>724.4</ele>
        <extensions>
          <visugpx:TrkExtension xmlns:visugpx="https://www.visugpx.com/editgpx/">
            <visugpx:node>175</visugpx:node>
            </visugpx:TrkExtension>
        </extensions>
      </trkpt>
      <trkpt lat="46.02545" lon="3.68147">
        <ele>749.9</ele>
        <extensions>
          <visugpx:TrkExtension xmlns:visugpx="https://www.visugpx.com/editgpx/">
            <visugpx:node>176</visugpx:node>
            </visugpx:TrkExtension>
        </extensions>
      </trkpt>
      <trkpt lat="46.02547" lon="3.68122">
        <ele>749.6</ele>
        <extensions>
          <visugpx:TrkExtension xmlns:visugpx="https://www.visugpx.com/editgpx/">
            <visugpx:node>177</visugpx:node>
            </visugpx:TrkExtension>
        </extensions>
      </trkpt>
      <trkpt lat="46.02621" lon="3.68177">
        <ele>765.6</ele>
        <extensions>
          <visugpx:TrkExtension xmlns:visugpx="https://www.visugpx.com/editgpx/">
            <visugpx:node>178</visugpx:node>
            </visugpx:TrkExtension>
        </extensions>
      </trkpt>
      <trkpt lat="46.02676" lon="3.68225">
        <ele>772.7</ele>
        <extensions>
          <visugpx:TrkExtension xmlns:visugpx="https://www.visugpx.com/editgpx/">
            <visugpx:node>179</visugpx:node>
            </visugpx:TrkExtension>
        </extensions>
      </trkpt>
      <trkpt lat="46.02716" lon="3.68259">
        <ele>777.4</ele>
        <extensions>
          <visugpx:TrkExtension xmlns:visugpx="https://www.visugpx.com/editgpx/">
            <visugpx:node>180</visugpx:node>
            </visugpx:TrkExtension>
        </extensions>
      </trkpt>
      <trkpt lat="46.02773" lon="3.68323">
        <ele>789.9</ele>
        <extensions>
          <visugpx:TrkExtension xmlns:visugpx="https://www.visugpx.com/editgpx/">
            <visugpx:node>181</visugpx:node>
            </visugpx:TrkExtension>
        </extensions>
      </trkpt>
      <trkpt lat="46.02847" lon="3.68326">
        <ele>802.9</ele>
        <extensions>
          <visugpx:TrkExtension xmlns:visugpx="https://www.visugpx.com/editgpx/">
            <visugpx:node>182</visugpx:node>
            </visugpx:TrkExtension>
        </extensions>
      </trkpt>
      <trkpt lat="46.02901" lon="3.68323">
        <ele>814.7</ele>
        <extensions>
          <visugpx:TrkExtension xmlns:visugpx="https://www.visugpx.com/editgpx/">
            <visugpx:node>183</visugpx:node>
            </visugpx:TrkExtension>
        </extensions>
      </trkpt>
      <trkpt lat="46.02933" lon="3.68365">
        <ele>822.2</ele>
        <extensions>
          <visugpx:TrkExtension xmlns:visugpx="https://www.visugpx.com/editgpx/">
            <visugpx:node>184</visugpx:node>
            </visugpx:TrkExtension>
        </extensions>
      </trkpt>
      <trkpt lat="46.03059" lon="3.68335">
        <ele>838.6</ele>
        <extensions>
          <visugpx:TrkExtension xmlns:visugpx="https://www.visugpx.com/editgpx/">
            <visugpx:node>185</visugpx:node>
            </visugpx:TrkExtension>
        </extensions>
      </trkpt>
      <trkpt lat="46.03085" lon="3.68271">
        <ele>838.8</ele>
        <extensions>
          <visugpx:TrkExtension xmlns:visugpx="https://www.visugpx.com/editgpx/">
            <visugpx:node>186</visugpx:node>
            </visugpx:TrkExtension>
        </extensions>
      </trkpt>
      <trkpt lat="46.03118" lon="3.68232">
        <ele>838.1</ele>
        <extensions>
          <visugpx:TrkExtension xmlns:visugpx="https://www.visugpx.com/editgpx/">
            <visugpx:node>187</visugpx:node>
            </visugpx:TrkExtension>
        </extensions>
      </trkpt>
      <trkpt lat="46.03173" lon="3.68068">
        <ele>843.7</ele>
        <extensions>
          <visugpx:TrkExtension xmlns:visugpx="https://www.visugpx.com/editgpx/">
            <visugpx:node>188</visugpx:node>
            </visugpx:TrkExtension>
        </extensions>
      </trkpt>
      <trkpt lat="46.03236" lon="3.67989">
        <ele>843.6</ele>
        <extensions>
          <visugpx:TrkExtension xmlns:visugpx="https://www.visugpx.com/editgpx/">
            <visugpx:node>189</visugpx:node>
            </visugpx:TrkExtension>
        </extensions>
      </trkpt>
      <trkpt lat="46.03346" lon="3.67876">
        <ele>844.5</ele>
        <extensions>
          <visugpx:TrkExtension xmlns:visugpx="https://www.visugpx.com/editgpx/">
            <visugpx:node>190</visugpx:node>
            </visugpx:TrkExtension>
        </extensions>
      </trkpt>
      <trkpt lat="46.03352" lon="3.67549">
        <ele>818.9</ele>
        <extensions>
          <visugpx:TrkExtension xmlns:visugpx="https://www.visugpx.com/editgpx/">
            <visugpx:node>191</visugpx:node>
            </visugpx:TrkExtension>
        </extensions>
      </trkpt>
      <trkpt lat="46.03319" lon="3.67452">
        <ele>820.1</ele>
        <extensions>
          <visugpx:TrkExtension xmlns:visugpx="https://www.visugpx.com/editgpx/">
            <visugpx:node>192</visugpx:node>
            </visugpx:TrkExtension>
        </extensions>
      </trkpt>
      <trkpt lat="46.03354" lon="3.67358">
        <ele>817.1</ele>
        <extensions>
          <visugpx:TrkExtension xmlns:visugpx="https://www.visugpx.com/editgpx/">
            <visugpx:node>193</visugpx:node>
            </visugpx:TrkExtension>
        </extensions>
      </trkpt>
      <trkpt lat="46.0335" lon="3.67239">
        <ele>817</ele>
        <extensions>
          <visugpx:TrkExtension xmlns:visugpx="https://www.visugpx.com/editgpx/">
            <visugpx:node>194</visugpx:node>
            </visugpx:TrkExtension>
        </extensions>
      </trkpt>
      <trkpt lat="46.03249" lon="3.67051">
        <ele>819.9</ele>
        <extensions>
          <visugpx:TrkExtension xmlns:visugpx="https://www.visugpx.com/editgpx/">
            <visugpx:node>195</visugpx:node>
            </visugpx:TrkExtension>
        </extensions>
      </trkpt>
      <trkpt lat="46.03283" lon="3.66963">
        <ele>816.7</ele>
        <extensions>
          <visugpx:TrkExtension xmlns:visugpx="https://www.visugpx.com/editgpx/">
            <visugpx:node>196</visugpx:node>
            </visugpx:TrkExtension>
        </extensions>
      </trkpt>
      <trkpt lat="46.03283" lon="3.6682">
        <ele>800</ele>
        <extensions>
          <visugpx:TrkExtension xmlns:visugpx="https://www.visugpx.com/editgpx/">
            <visugpx:node>197</visugpx:node>
            </visugpx:TrkExtension>
        </extensions>
      </trkpt>
      <trkpt lat="46.03348" lon="3.66538">
        <ele>769.5</ele>
        <extensions>
          <visugpx:TrkExtension xmlns:visugpx="https://www.visugpx.com/editgpx/">
            <visugpx:node>198</visugpx:node>
            </visugpx:TrkExtension>
        </extensions>
      </trkpt>
      <trkpt lat="46.03335" lon="3.66299">
        <ele>738.3</ele>
        <extensions>
          <visugpx:TrkExtension xmlns:visugpx="https://www.visugpx.com/editgpx/">
            <visugpx:node>199</visugpx:node>
            </visugpx:TrkExtension>
        </extensions>
      </trkpt>
      <trkpt lat="46.03314" lon="3.66019">
        <ele>709.4</ele>
        <extensions>
          <visugpx:TrkExtension xmlns:visugpx="https://www.visugpx.com/editgpx/">
            <visugpx:node>200</visugpx:node>
            </visugpx:TrkExtension>
        </extensions>
      </trkpt>
      <trkpt lat="46.03403" lon="3.66016">
        <ele>699.2</ele>
        <extensions>
          <visugpx:TrkExtension xmlns:visugpx="https://www.visugpx.com/editgpx/">
            <visugpx:node>201</visugpx:node>
            </visugpx:TrkExtension>
        </extensions>
      </trkpt>
      <trkpt lat="46.03517" lon="3.66123">
        <ele>689.6</ele>
        <extensions>
          <visugpx:TrkExtension xmlns:visugpx="https://www.visugpx.com/editgpx/">
            <visugpx:node>202</visugpx:node>
            </visugpx:TrkExtension>
        </extensions>
      </trkpt>
      <trkpt lat="46.03637" lon="3.66195">
        <ele>682.6</ele>
        <extensions>
          <visugpx:TrkExtension xmlns:visugpx="https://www.visugpx.com/editgpx/">
            <visugpx:node>203</visugpx:node>
            </visugpx:TrkExtension>
        </extensions>
      </trkpt>
      <trkpt lat="46.03683" lon="3.66283">
        <ele>686.4</ele>
        <extensions>
          <visugpx:TrkExtension xmlns:visugpx="https://www.visugpx.com/editgpx/">
            <visugpx:node>204</visugpx:node>
            </visugpx:TrkExtension>
        </extensions>
      </trkpt>
      <trkpt lat="46.03689" lon="3.66326">
        <ele>686</ele>
        <extensions>
          <visugpx:TrkExtension xmlns:visugpx="https://www.visugpx.com/editgpx/">
            <visugpx:node>205</visugpx:node>
            </visugpx:TrkExtension>
        </extensions>
      </trkpt>
      <trkpt lat="46.03672" lon="3.66411">
        <ele>686.5</ele>
        <extensions>
          <visugpx:TrkExtension xmlns:visugpx="https://www.visugpx.com/editgpx/">
            <visugpx:node>206</visugpx:node>
            </visugpx:TrkExtension>
        </extensions>
      </trkpt>
      <trkpt lat="46.03708" lon="3.66459">
        <ele>678.9</ele>
        <extensions>
          <visugpx:TrkExtension xmlns:visugpx="https://www.visugpx.com/editgpx/">
            <visugpx:node>207</visugpx:node>
            </visugpx:TrkExtension>
        </extensions>
      </trkpt>
      <trkpt lat="46.03712" lon="3.66541">
        <ele>684.1</ele>
        <extensions>
          <visugpx:TrkExtension xmlns:visugpx="https://www.visugpx.com/editgpx/">
            <visugpx:node>208</visugpx:node>
            </visugpx:TrkExtension>
        </extensions>
      </trkpt>
      <trkpt lat="46.03843" lon="3.66644">
        <ele>683.9</ele>
        <extensions>
          <visugpx:TrkExtension xmlns:visugpx="https://www.visugpx.com/editgpx/">
            <visugpx:node>209</visugpx:node>
            </visugpx:TrkExtension>
        </extensions>
      </trkpt>
      <trkpt lat="46.0387" lon="3.66717">
        <ele>685.2</ele>
        <extensions>
          <visugpx:TrkExtension xmlns:visugpx="https://www.visugpx.com/editgpx/">
            <visugpx:node>210</visugpx:node>
            </visugpx:TrkExtension>
        </extensions>
      </trkpt>
      <trkpt lat="46.03879" lon="3.66869">
        <ele>694.1</ele>
        <extensions>
          <visugpx:TrkExtension xmlns:visugpx="https://www.visugpx.com/editgpx/">
            <visugpx:node>211</visugpx:node>
            </visugpx:TrkExtension>
        </extensions>
      </trkpt>
      <trkpt lat="46.0394" lon="3.66869">
        <ele>694.6</ele>
        <extensions>
          <visugpx:TrkExtension xmlns:visugpx="https://www.visugpx.com/editgpx/">
            <visugpx:node>212</visugpx:node>
            </visugpx:TrkExtension>
        </extensions>
      </trkpt>
      <trkpt lat="46.03983" lon="3.66968">
        <ele>698</ele>
        <extensions>
          <visugpx:TrkExtension xmlns:visugpx="https://www.visugpx.com/editgpx/">
            <visugpx:node>213</visugpx:node>
            </visugpx:TrkExtension>
        </extensions>
      </trkpt>
      <trkpt lat="46.04093" lon="3.66928">
        <ele>698.6</ele>
        <extensions>
          <visugpx:TrkExtension xmlns:visugpx="https://www.visugpx.com/editgpx/">
            <visugpx:node>214</visugpx:node>
            </visugpx:TrkExtension>
        </extensions>
      </trkpt>
      <trkpt lat="46.04216" lon="3.66881">
        <ele>701.8</ele>
        <extensions>
          <visugpx:TrkExtension xmlns:visugpx="https://www.visugpx.com/editgpx/">
            <visugpx:node>215</visugpx:node>
            </visugpx:TrkExtension>
        </extensions>
      </trkpt>
      <trkpt lat="46.04222" lon="3.67043">
        <ele>700.6</ele>
        <extensions>
          <visugpx:TrkExtension xmlns:visugpx="https://www.visugpx.com/editgpx/">
            <visugpx:node>216</visugpx:node>
            </visugpx:TrkExtension>
        </extensions>
      </trkpt>
      <trkpt lat="46.04383" lon="3.66872">
        <ele>707</ele>
        <extensions>
          <visugpx:TrkExtension xmlns:visugpx="https://www.visugpx.com/editgpx/">
            <visugpx:node>217</visugpx:node>
            </visugpx:TrkExtension>
        </extensions>
      </trkpt>
      <trkpt lat="46.04459" lon="3.66898">
        <ele>707</ele>
        <extensions>
          <visugpx:TrkExtension xmlns:visugpx="https://www.visugpx.com/editgpx/">
            <visugpx:node>218</visugpx:node>
            </visugpx:TrkExtension>
        </extensions>
      </trkpt>
      <trkpt lat="46.04648" lon="3.67009">
        <ele>705.4</ele>
        <extensions>
          <visugpx:TrkExtension xmlns:visugpx="https://www.visugpx.com/editgpx/">
            <visugpx:node>219</visugpx:node>
            </visugpx:TrkExtension>
        </extensions>
      </trkpt>
      <trkpt lat="46.04711" lon="3.67048">
        <ele>703.5</ele>
        <extensions>
          <visugpx:TrkExtension xmlns:visugpx="https://www.visugpx.com/editgpx/">
            <visugpx:node>220</visugpx:node>
            </visugpx:TrkExtension>
        </extensions>
      </trkpt>
      <trkpt lat="46.04769" lon="3.67074">
        <ele>698.2</ele>
        <extensions>
          <visugpx:TrkExtension xmlns:visugpx="https://www.visugpx.com/editgpx/">
            <visugpx:node>221</visugpx:node>
            </visugpx:TrkExtension>
        </extensions>
      </trkpt>
      <trkpt lat="46.04826" lon="3.67068">
        <ele>686.9</ele>
        <extensions>
          <visugpx:TrkExtension xmlns:visugpx="https://www.visugpx.com/editgpx/">
            <visugpx:node>222</visugpx:node>
            </visugpx:TrkExtension>
        </extensions>
      </trkpt>
      <trkpt lat="46.04915" lon="3.66989">
        <ele>669.4</ele>
        <extensions>
          <visugpx:TrkExtension xmlns:visugpx="https://www.visugpx.com/editgpx/">
            <visugpx:node>223</visugpx:node>
            </visugpx:TrkExtension>
        </extensions>
      </trkpt>
      <trkpt lat="46.04938" lon="3.6696">
        <ele>664.7</ele>
        <extensions>
          <visugpx:TrkExtension xmlns:visugpx="https://www.visugpx.com/editgpx/">
            <visugpx:node>224</visugpx:node>
            </visugpx:TrkExtension>
        </extensions>
      </trkpt>
      <trkpt lat="46.0496" lon="3.66992">
        <ele>657.4</ele>
        <extensions>
          <visugpx:TrkExtension xmlns:visugpx="https://www.visugpx.com/editgpx/">
            <visugpx:node>225</visugpx:node>
            </visugpx:TrkExtension>
        </extensions>
      </trkpt>
      <trkpt lat="46.05003" lon="3.66972">
        <ele>651.6</ele>
        <extensions>
          <visugpx:TrkExtension xmlns:visugpx="https://www.visugpx.com/editgpx/">
            <visugpx:node>226</visugpx:node>
            </visugpx:TrkExtension>
        </extensions>
      </trkpt>
      <trkpt lat="46.05057" lon="3.66887">
        <ele>646.3</ele>
        <extensions>
          <visugpx:TrkExtension xmlns:visugpx="https://www.visugpx.com/editgpx/">
            <visugpx:node>227</visugpx:node>
            </visugpx:TrkExtension>
        </extensions>
      </trkpt>
      <trkpt lat="46.05042" lon="3.66804">
        <ele>639.7</ele>
        <extensions>
          <visugpx:TrkExtension xmlns:visugpx="https://www.visugpx.com/editgpx/">
            <visugpx:node>228</visugpx:node>
            </visugpx:TrkExtension>
        </extensions>
      </trkpt>
      <trkpt lat="46.05015" lon="3.66769">
        <ele>641.1</ele>
        <extensions>
          <visugpx:TrkExtension xmlns:visugpx="https://www.visugpx.com/editgpx/">
            <visugpx:node>229</visugpx:node>
            </visugpx:TrkExtension>
        </extensions>
      </trkpt>
      <trkpt lat="46.05055" lon="3.66728">
        <ele>633.3</ele>
        <extensions>
          <visugpx:TrkExtension xmlns:visugpx="https://www.visugpx.com/editgpx/">
            <visugpx:node>230</visugpx:node>
            </visugpx:TrkExtension>
        </extensions>
      </trkpt>
      <trkpt lat="46.05079" lon="3.66807">
        <ele>631.2</ele>
        <extensions>
          <visugpx:TrkExtension xmlns:visugpx="https://www.visugpx.com/editgpx/">
            <visugpx:node>231</visugpx:node>
            </visugpx:TrkExtension>
        </extensions>
      </trkpt>
      <trkpt lat="46.05104" lon="3.66858">
        <ele>633</ele>
        <extensions>
          <visugpx:TrkExtension xmlns:visugpx="https://www.visugpx.com/editgpx/">
            <visugpx:node>232</visugpx:node>
            </visugpx:TrkExtension>
        </extensions>
      </trkpt>
      <trkpt lat="46.05094" lon="3.6693">
        <ele>636.9</ele>
        <extensions>
          <visugpx:TrkExtension xmlns:visugpx="https://www.visugpx.com/editgpx/">
            <visugpx:node>233</visugpx:node>
            </visugpx:TrkExtension>
        </extensions>
      </trkpt>
      <trkpt lat="46.05019" lon="3.67056">
        <ele>643.6</ele>
        <extensions>
          <visugpx:TrkExtension xmlns:visugpx="https://www.visugpx.com/editgpx/">
            <visugpx:node>234</visugpx:node>
            </visugpx:TrkExtension>
        </extensions>
      </trkpt>
      <trkpt lat="46.04931" lon="3.67131">
        <ele>639.4</ele>
        <extensions>
          <visugpx:TrkExtension xmlns:visugpx="https://www.visugpx.com/editgpx/">
            <visugpx:node>235</visugpx:node>
            </visugpx:TrkExtension>
        </extensions>
      </trkpt>
      <trkpt lat="46.04859" lon="3.67198">
        <ele>644.9</ele>
        <extensions>
          <visugpx:TrkExtension xmlns:visugpx="https://www.visugpx.com/editgpx/">
            <visugpx:node>236</visugpx:node>
            </visugpx:TrkExtension>
        </extensions>
      </trkpt>
      <trkpt lat="46.04799" lon="3.67286">
        <ele>648.3</ele>
        <extensions>
          <visugpx:TrkExtension xmlns:visugpx="https://www.visugpx.com/editgpx/">
            <visugpx:node>237</visugpx:node>
            </visugpx:TrkExtension>
        </extensions>
      </trkpt>
      <trkpt lat="46.04725" lon="3.67405">
        <ele>648.7</ele>
        <extensions>
          <visugpx:TrkExtension xmlns:visugpx="https://www.visugpx.com/editgpx/">
            <visugpx:node>238</visugpx:node>
            </visugpx:TrkExtension>
        </extensions>
      </trkpt>
      <trkpt lat="46.04826" lon="3.67459">
        <ele>644.7</ele>
        <extensions>
          <visugpx:TrkExtension xmlns:visugpx="https://www.visugpx.com/editgpx/">
            <visugpx:node>239</visugpx:node>
            </visugpx:TrkExtension>
        </extensions>
      </trkpt>
      <trkpt lat="46.04864" lon="3.67455">
        <ele>641.4</ele>
        <extensions>
          <visugpx:TrkExtension xmlns:visugpx="https://www.visugpx.com/editgpx/">
            <visugpx:node>240</visugpx:node>
            </visugpx:TrkExtension>
        </extensions>
      </trkpt>
      <trkpt lat="46.04913" lon="3.67421">
        <ele>635.4</ele>
        <extensions>
          <visugpx:TrkExtension xmlns:visugpx="https://www.visugpx.com/editgpx/">
            <visugpx:node>241</visugpx:node>
            </visugpx:TrkExtension>
        </extensions>
      </trkpt>
      <trkpt lat="46.0495" lon="3.67356">
        <ele>627.5</ele>
        <extensions>
          <visugpx:TrkExtension xmlns:visugpx="https://www.visugpx.com/editgpx/">
            <visugpx:node>242</visugpx:node>
            </visugpx:TrkExtension>
        </extensions>
      </trkpt>
      <trkpt lat="46.04997" lon="3.67377">
        <ele>615.9</ele>
        <extensions>
          <visugpx:TrkExtension xmlns:visugpx="https://www.visugpx.com/editgpx/">
            <visugpx:node>243</visugpx:node>
            </visugpx:TrkExtension>
        </extensions>
      </trkpt>
      <trkpt lat="46.0501" lon="3.67459">
        <ele>601.7</ele>
        <extensions>
          <visugpx:TrkExtension xmlns:visugpx="https://www.visugpx.com/editgpx/">
            <visugpx:node>244</visugpx:node>
            </visugpx:TrkExtension>
        </extensions>
      </trkpt>
      <trkpt lat="46.05054" lon="3.67435">
        <ele>592.1</ele>
        <extensions>
          <visugpx:TrkExtension xmlns:visugpx="https://www.visugpx.com/editgpx/">
            <visugpx:node>245</visugpx:node>
            </visugpx:TrkExtension>
        </extensions>
      </trkpt>
      <trkpt lat="46.05051" lon="3.67361">
        <ele>592.7</ele>
        <extensions>
          <visugpx:TrkExtension xmlns:visugpx="https://www.visugpx.com/editgpx/">
            <visugpx:node>246</visugpx:node>
            </visugpx:TrkExtension>
        </extensions>
      </trkpt>
      <trkpt lat="46.05039" lon="3.67292">
        <ele>591</ele>
        <extensions>
          <visugpx:TrkExtension xmlns:visugpx="https://www.visugpx.com/editgpx/">
            <visugpx:node>247</visugpx:node>
            </visugpx:TrkExtension>
        </extensions>
      </trkpt>
      <trkpt lat="46.0513" lon="3.67236">
        <ele>590.8</ele>
        <extensions>
          <visugpx:TrkExtension xmlns:visugpx="https://www.visugpx.com/editgpx/">
            <visugpx:node>248</visugpx:node>
            </visugpx:TrkExtension>
        </extensions>
      </trkpt>
      <trkpt lat="46.05171" lon="3.67251">
        <ele>586.6</ele>
        <extensions>
          <visugpx:TrkExtension xmlns:visugpx="https://www.visugpx.com/editgpx/">
            <visugpx:node>249</visugpx:node>
            </visugpx:TrkExtension>
        </extensions>
      </trkpt>
      <trkpt lat="46.05238" lon="3.67304">
        <ele>584</ele>
        <extensions>
          <visugpx:TrkExtension xmlns:visugpx="https://www.visugpx.com/editgpx/">
            <visugpx:node>250</visugpx:node>
            </visugpx:TrkExtension>
        </extensions>
      </trkpt>
      <trkpt lat="46.05366" lon="3.67392">
        <ele>571.3</ele>
        <extensions>
          <visugpx:TrkExtension xmlns:visugpx="https://www.visugpx.com/editgpx/">
            <visugpx:node>251</visugpx:node>
            </visugpx:TrkExtension>
        </extensions>
      </trkpt>
      <trkpt lat="46.05464" lon="3.67329">
        <ele>564.2</ele>
        <extensions>
          <visugpx:TrkExtension xmlns:visugpx="https://www.visugpx.com/editgpx/">
            <visugpx:node>252</visugpx:node>
            </visugpx:TrkExtension>
        </extensions>
      </trkpt>
      <trkpt lat="46.05477" lon="3.67277">
        <ele>566.5</ele>
        <extensions>
          <visugpx:TrkExtension xmlns:visugpx="https://www.visugpx.com/editgpx/">
            <visugpx:node>253</visugpx:node>
            </visugpx:TrkExtension>
        </extensions>
      </trkpt>
      <trkpt lat="46.05596" lon="3.67179">
        <ele>560.7</ele>
        <extensions>
          <visugpx:TrkExtension xmlns:visugpx="https://www.visugpx.com/editgpx/">
            <visugpx:node>254</visugpx:node>
            </visugpx:TrkExtension>
        </extensions>
      </trkpt>
      <trkpt lat="46.0555" lon="3.6713">
        <ele>567</ele>
        <extensions>
          <visugpx:TrkExtension xmlns:visugpx="https://www.visugpx.com/editgpx/">
            <visugpx:node>255</visugpx:node>
            </visugpx:TrkExtension>
        </extensions>
      </trkpt>
      <trkpt lat="46.05581" lon="3.6701">
        <ele>568.9</ele>
        <extensions>
          <visugpx:TrkExtension xmlns:visugpx="https://www.visugpx.com/editgpx/">
            <visugpx:node>256</visugpx:node>
            </visugpx:TrkExtension>
        </extensions>
      </trkpt>
      <trkpt lat="46.05605" lon="3.66901">
        <ele>564.3</ele>
        <extensions>
          <visugpx:TrkExtension xmlns:visugpx="https://www.visugpx.com/editgpx/">
            <visugpx:node>257</visugpx:node>
            </visugpx:TrkExtension>
        </extensions>
      </trkpt>
      <trkpt lat="46.05648" lon="3.66823">
        <ele>571</ele>
        <extensions>
          <visugpx:TrkExtension xmlns:visugpx="https://www.visugpx.com/editgpx/">
            <visugpx:node>258</visugpx:node>
            </visugpx:TrkExtension>
        </extensions>
      </trkpt>
      <trkpt lat="46.05626" lon="3.66688">
        <ele>574.6</ele>
        <extensions>
          <visugpx:TrkExtension xmlns:visugpx="https://www.visugpx.com/editgpx/">
            <visugpx:node>259</visugpx:node>
            </visugpx:TrkExtension>
        </extensions>
      </trkpt>
      <trkpt lat="46.05704" lon="3.66619">
        <ele>571.7</ele>
        <extensions>
          <visugpx:TrkExtension xmlns:visugpx="https://www.visugpx.com/editgpx/">
            <visugpx:node>260</visugpx:node>
            </visugpx:TrkExtension>
        </extensions>
      </trkpt>
      <trkpt lat="46.05778" lon="3.66558">
        <ele>565.9</ele>
        <extensions>
          <visugpx:TrkExtension xmlns:visugpx="https://www.visugpx.com/editgpx/">
            <visugpx:node>261</visugpx:node>
            </visugpx:TrkExtension>
        </extensions>
      </trkpt>
      <trkpt lat="46.05837" lon="3.66607">
        <ele>561.8</ele>
        <extensions>
          <visugpx:TrkExtension xmlns:visugpx="https://www.visugpx.com/editgpx/">
            <visugpx:node>262</visugpx:node>
            </visugpx:TrkExtension>
        </extensions>
      </trkpt>
      <trkpt lat="46.05918" lon="3.66722">
        <ele>559</ele>
        <extensions>
          <visugpx:TrkExtension xmlns:visugpx="https://www.visugpx.com/editgpx/">
            <visugpx:node>263</visugpx:node>
            </visugpx:TrkExtension>
        </extensions>
      </trkpt>
      <trkpt lat="46.06036" lon="3.66781">
        <ele>557.8</ele>
        <extensions>
          <visugpx:TrkExtension xmlns:visugpx="https://www.visugpx.com/editgpx/">
            <visugpx:node>264</visugpx:node>
            </visugpx:TrkExtension>
        </extensions>
      </trkpt>
      <trkpt lat="46.06239" lon="3.66781">
        <ele>548</ele>
        <extensions>
          <visugpx:TrkExtension xmlns:visugpx="https://www.visugpx.com/editgpx/">
            <visugpx:node>265</visugpx:node>
            </visugpx:TrkExtension>
        </extensions>
      </trkpt>
      <trkpt lat="46.06307" lon="3.66842">
        <ele>545.7</ele>
        <extensions>
          <visugpx:TrkExtension xmlns:visugpx="https://www.visugpx.com/editgpx/">
            <visugpx:node>266</visugpx:node>
            </visugpx:TrkExtension>
        </extensions>
      </trkpt>
      <trkpt lat="46.06346" lon="3.66907">
        <ele>544.5</ele>
        <extensions>
          <visugpx:TrkExtension xmlns:visugpx="https://www.visugpx.com/editgpx/">
            <visugpx:node>267</visugpx:node>
            </visugpx:TrkExtension>
        </extensions>
      </trkpt>
      <trkpt lat="46.06384" lon="3.66913">
        <ele>544.6</ele>
        <extensions>
          <visugpx:TrkExtension xmlns:visugpx="https://www.visugpx.com/editgpx/">
            <visugpx:node>268</visugpx:node>
            </visugpx:TrkExtension>
        </extensions>
      </trkpt>
      <trkpt lat="46.06432" lon="3.66869">
        <ele>542.3</ele>
        <extensions>
          <visugpx:TrkExtension xmlns:visugpx="https://www.visugpx.com/editgpx/">
            <visugpx:node>269</visugpx:node>
            </visugpx:TrkExtension>
        </extensions>
      </trkpt>
      <trkpt lat="46.06526" lon="3.66834">
        <ele>541</ele>
        <extensions>
          <visugpx:TrkExtension xmlns:visugpx="https://www.visugpx.com/editgpx/">
            <visugpx:node>270</visugpx:node>
            </visugpx:TrkExtension>
        </extensions>
      </trkpt>
      <trkpt lat="46.06603" lon="3.66784">
        <ele>540.1</ele>
        <extensions>
          <visugpx:TrkExtension xmlns:visugpx="https://www.visugpx.com/editgpx/">
            <visugpx:node>271</visugpx:node>
            </visugpx:TrkExtension>
        </extensions>
      </trkpt>
      <trkpt lat="46.0663" lon="3.66769">
        <ele>539.9</ele>
        <extensions>
          <visugpx:TrkExtension xmlns:visugpx="https://www.visugpx.com/editgpx/">
            <visugpx:node>272</visugpx:node>
            </visugpx:TrkExtension>
        </extensions>
      </trkpt>
      <trkpt lat="46.06711" lon="3.66725">
        <ele>538.3</ele>
        <extensions>
          <visugpx:TrkExtension xmlns:visugpx="https://www.visugpx.com/editgpx/">
            <visugpx:node>273</visugpx:node>
            </visugpx:TrkExtension>
        </extensions>
      </trkpt>
      <trkpt lat="46.06826" lon="3.66728">
        <ele>537.9</ele>
        <extensions>
          <visugpx:TrkExtension xmlns:visugpx="https://www.visugpx.com/editgpx/">
            <visugpx:node>274</visugpx:node>
            </visugpx:TrkExtension>
        </extensions>
      </trkpt>
      <trkpt lat="46.06888" lon="3.66726">
        <ele>539.3</ele>
        <extensions>
          <visugpx:TrkExtension xmlns:visugpx="https://www.visugpx.com/editgpx/">
            <visugpx:node>275</visugpx:node>
            </visugpx:TrkExtension>
        </extensions>
      </trkpt>
      <trkpt lat="46.06925" lon="3.66723">
        <ele>539.1</ele>
        <extensions>
          <visugpx:TrkExtension xmlns:visugpx="https://www.visugpx.com/editgpx/">
            <visugpx:node>276</visugpx:node>
            </visugpx:TrkExtension>
        </extensions>
      </trkpt>
      <trkpt lat="46.06951" lon="3.6674">
        <ele>540.3</ele>
        <extensions>
          <visugpx:TrkExtension xmlns:visugpx="https://www.visugpx.com/editgpx/">
            <visugpx:node>277</visugpx:node>
            </visugpx:TrkExtension>
        </extensions>
      </trkpt>
    </trkseg>
  </trk>
  <trk>
    <name><![CDATA[Mayet Croix Faraude Fradin Mayet_3]]></name>
    <trkseg>
      <trkpt lat="46.07015" lon="3.66704">
        <ele>537.2</ele>
      </trkpt>
      <trkpt lat="46.07029" lon="3.66658">
        <ele>536.7</ele>
        <extensions>
          <visugpx:TrkExtension xmlns:visugpx="https://www.visugpx.com/editgpx/">
            <visugpx:node>1</visugpx:node>
            </visugpx:TrkExtension>
        </extensions>
      </trkpt>
      <trkpt lat="46.06967" lon="3.66582">
        <ele>538</ele>
        <extensions>
          <visugpx:TrkExtension xmlns:visugpx="https://www.visugpx.com/editgpx/">
            <visugpx:node>2</visugpx:node>
            </visugpx:TrkExtension>
        </extensions>
      </trkpt>
    </trkseg>
  </trk>
</gpx>